Wetterdaten: Montag, 04.08.2014
Datum Zeit Temp. Aussen +5cm Feuchte Auss Luftdruck Regen Sonnenschein Regendauer UV Solar Windben
04.08.2014 00:00 16,1 C 15,0 C 98 % 1012,9 hPa 0,0 l/m 0 min 2 min 0,0 UV-I 0 W/m 17,7 km/h (3 Bft)
04.08.2014 00:02 16,1 C 15,0 C 98 % 1012,9 hPa 0,0 l/m 0 min 2 min 0,0 UV-I 0 W/m 21,3 km/h (4 Bft)
04.08.2014 00:05 16,1 C 15,0 C 98 % 1012,9 hPa 0,2 l/m 0 min 2 min 0,0 UV-I 0 W/m 21,3 km/h (4 Bft)
04.08.2014 00:06 16,1 C 15,0 C 98 % 1012,9 hPa 0,0 l/m 0 min 1 min 0,0 UV-I 0 W/m 10,7 km/h (2 Bft)
04.08.2014 00:08 16,1 C 15,0 C 98 % 1012,9 hPa 0,0 l/m 0 min 2 min 0,0 UV-I 0 W/m 17,7 km/h (3 Bft)
04.08.2014 00:10 16,1 C 15,0 C 98 % 1012,9 hPa 0,0 l/m 0 min 2 min 0,0 UV-I 0 W/m 14,2 km/h (3 Bft)
04.08.2014 00:12 16,1 C 15,0 C 98 % 1012,9 hPa 0,0 l/m 0 min 2 min 0,0 UV-I 0 W/m 7,1 km/h (2 Bft)
04.08.2014 00:14 16,1 C 15,0 C 98 % 1012,8 hPa 0,0 l/m 0 min 2 min 0,0 UV-I 0 W/m 21,3 km/h (4 Bft)
04.08.2014 00:16 16,1 C 15,0 C 98 % 1012,8 hPa 0,0 l/m 0 min 2 min 0,0 UV-I 0 W/m 24,7 km/h (4 Bft)
04.08.2014 00:18 16,1 C 15,0 C 98 % 1012,7 hPa 0,0 l/m 0 min 2 min 0,0 UV-I 0 W/m 17,7 km/h (3 Bft)
04.08.2014 00:20 16,1 C 15,0 C 98 % 1012,8 hPa 0,0 l/m 0 min 2 min 0,0 UV-I 0 W/m 21,3 km/h (4 Bft)
04.08.2014 00:22 16,1 C 15,0 C 98 % 1012,8 hPa 0,0 l/m 0 min 2 min 0,0 UV-I 0 W/m 17,7 km/h (3 Bft)
04.08.2014 00:24 16,1 C 15,0 C 98 % 1012,8 hPa 0,0 l/m 0 min 2 min 0,0 UV-I 0 W/m 3,5 km/h (1 Bft)
04.08.2014 00:26 16,1 C 15,0 C 98 % 1012,8 hPa 0,0 l/m 0 min 2 min 0,0 UV-I 0 W/m 0,0 km/h (0 Bft)
04.08.2014 00:28 16,1 C 15,0 C 98 % 1012,8 hPa 0,0 l/m 0 min 2 min 0,0 UV-I 0 W/m 7,1 km/h (2 Bft)
04.08.2014 00:30 16,1 C 15,0 C 98 % 1012,8 hPa 0,0 l/m 0 min 2 min 0,0 UV-I 0 W/m 10,7 km/h (2 Bft)
04.08.2014 00:32 16,2 C 15,0 C 98 % 1012,8 hPa 0,0 l/m 0 min 2 min 0,0 UV-I 0 W/m 3,5 km/h (1 Bft)
04.08.2014 00:34 16,2 C 15,0 C 98 % 1012,7 hPa 0,0 l/m 0 min 2 min 0,0 UV-I 0 W/m 0,0 km/h (0 Bft)
04.08.2014 00:36 16,2 C 15,0 C 98 % 1012,6 hPa 0,0 l/m 0 min 2 min 0,0 UV-I 0 W/m 0,0 km/h (0 Bft)
04.08.2014 00:38 16,2 C 15,0 C 98 % 1012,6 hPa 0,2 l/m 0 min 2 min 0,0 UV-I 0 W/m 3,5 km/h (1 Bft)
04.08.2014 00:40 16,2 C 15,0 C 98 % 1012,7 hPa 0,0 l/m 0 min 2 min 0,0 UV-I 0 W/m 0,0 km/h (0 Bft)
04.08.2014 00:42 16,2 C 15,0 C 98 % 1012,6 hPa 0,0 l/m 0 min 2 min 0,0 UV-I 0 W/m 0,0 km/h (0 Bft)
04.08.2014 00:44 16,2 C 15,0 C 98 % 1012,6 hPa 0,0 l/m 0 min 2 min 0,0 UV-I 0 W/m 3,5 km/h (1 Bft)
04.08.2014 00:46 16,2 C 15,0 C 98 % 1012,6 hPa 0,0 l/m 0 min 2 min 0,0 UV-I 0 W/m 14,2 km/h (3 Bft)
04.08.2014 00:48 16,2 C 15,0 C 98 % 1012,6 hPa 0,0 l/m 0 min 2 min 0,0 UV-I 0 W/m 10,7 km/h (2 Bft)
04.08.2014 00:50 16,2 C 15,0 C 98 % 1012,7 hPa 0,0 l/m 0 min 2 min 0,0 UV-I 0 W/m 21,3 km/h (4 Bft)
04.08.2014 00:52 16,2 C 15,0 C 98 % 1012,6 hPa 0,0 l/m 0 min 2 min 0,0 UV-I 0 W/m 3,5 km/h (1 Bft)
04.08.2014 00:54 16,2 C 15,0 C 98 % 1012,6 hPa 0,0 l/m 0 min 2 min 0,0 UV-I 0 W/m 0,0 km/h (0 Bft)
04.08.2014 00:56 16,2 C 15,0 C 98 % 1012,6 hPa 0,0 l/m 0 min 0 min 0,0 UV-I 0 W/m 0,0 km/h (0 Bft)
04.08.2014 00:58 16,2 C 15,0 C 98 % 1012,7 hPa 0,0 l/m 0 min 0 min 0,0 UV-I 0 W/m 0,0 km/h (0 Bft)
04.08.2014 01:00 16,2 C 15,0 C 98 % 1012,8 hPa 0,0 l/m 0 min 0 min 0,0 UV-I 0 W/m 0,0 km/h (0 Bft)
04.08.2014 01:02 16,2 C 15,0 C 98 % 1012,8 hPa 0,0 l/m 0 min 0 min 0,0 UV-I 0 W/m 3,5 km/h (1 Bft)
04.08.2014 01:04 16,2 C 15,0 C 98 % 1012,8 hPa 0,0 l/m 0 min 0 min 0,0 UV-I 0 W/m 0,0 km/h (0 Bft)
04.08.2014 01:06 16,3 C 15,0 C 98 % 1012,8 hPa 0,0 l/m 0 min 0 min 0,0 UV-I 0 W/m 0,0 km/h (0 Bft)
04.08.2014 01:08 16,3 C 15,0 C 98 % 1012,9 hPa 0,0 l/m 0 min 0 min 0,0 UV-I 0 W/m 0,0 km/h (0 Bft)
04.08.2014 01:10 16,4 C 15,0 C 98 % 1012,9 hPa 0,0 l/m 0 min 0 min 0,0 UV-I 0 W/m 3,5 km/h (1 Bft)
04.08.2014 01:12 16,4 C 15,0 C 98 % 1012,9 hPa 0,0 l/m 0 min 0 min 0,0 UV-I 0 W/m 10,7 km/h (2 Bft)
04.08.2014 01:14 16,4 C 15,0 C 98 % 1012,9 hPa 0,0 l/m 0 min 2 min 0,0 UV-I 0 W/m 10,7 km/h (2 Bft)
04.08.2014 01:16 16,4 C 15,0 C 98 % 1012,9 hPa 0,0 l/m 0 min 2 min 0,0 UV-I 0 W/m 3,5 km/h (1 Bft)
04.08.2014 01:18 16,3 C 15,0 C 98 % 1012,9 hPa 0,0 l/m 0 min 2 min 0,0 UV-I 0 W/m 14,2 km/h (3 Bft)
04.08.2014 01:20 16,3 C 15,0 C 98 % 1012,9 hPa 0,0 l/m 0 min 0 min 0,0 UV-I 0 W/m 14,2 km/h (3 Bft)
04.08.2014 01:22 16,3 C 15,0 C 98 % 1013,0 hPa 0,0 l/m 0 min 0 min 0,0 UV-I 0 W/m 0,0 km/h (0 Bft)
04.08.2014 01:24 16,3 C 15,0 C 98 % 1013,0 hPa 0,0 l/m 0 min 0 min 0,0 UV-I 0 W/m 0,0 km/h (0 Bft)
04.08.2014 01:26 16,2 C 15,0 C 98 % 1012,9 hPa 0,0 l/m 0 min 0 min 0,0 UV-I 0 W/m 0,0 km/h (0 Bft)
04.08.2014 01:28 16,3 C 15,0 C 98 % 1013,0 hPa 0,0 l/m 0 min 0 min 0,0 UV-I 0 W/m 10,7 km/h (2 Bft)
04.08.2014 01:30 16,3 C 15,0 C 98 % 1013,0 hPa 0,0 l/m 0 min 0 min 0,0 UV-I 0 W/m 0,0 km/h (0 Bft)
04.08.2014 01:32 16,3 C 15,0 C 98 % 1013,0 hPa 0,0 l/m 0 min 0 min 0,0 UV-I 0 W/m 0,0 km/h (0 Bft)
04.08.2014 01:34 16,3 C 15,0 C 98 % 1013,0 hPa 0,0 l/m 0 min 0 min 0,0 UV-I 0 W/m 14,2 km/h (3 Bft)
04.08.2014 01:36 16,2 C 15,0 C 98 % 1013,0 hPa 0,0 l/m 0 min 0 min 0,0 UV-I 0 W/m 0,0 km/h (0 Bft)
04.08.2014 01:38 16,2 C 15,0 C 98 % 1013,1 hPa 0,0 l/m 0 min 0 min 0,0 UV-I 0 W/m 0,0 km/h (0 Bft)
04.08.2014 01:40 16,2 C 15,0 C 98 % 1012,9 hPa 0,0 l/m 0 min 2 min 0,0 UV-I 0 W/m 0,0 km/h (0 Bft)
04.08.2014 01:42 16,2 C 15,0 C 98 % 1013,0 hPa 0,0 l/m 0 min 2 min 0,0 UV-I 0 W/m 0,0 km/h (0 Bft)
04.08.2014 01:44 16,2 C 15,0 C 98 % 1012,9 hPa 0,0 l/m 0 min 2 min 0,0 UV-I 0 W/m 0,0 km/h (0 Bft)
04.08.2014 01:46 16,2 C 15,0 C 98 % 1012,9 hPa 0,0 l/m 0 min 0 min 0,0 UV-I 0 W/m 0,0 km/h (0 Bft)
04.08.2014 01:48 16,2 C 15,0 C 98 % 1013,0 hPa 0,0 l/m 0 min 2 min 0,0 UV-I 0 W/m 0,0 km/h (0 Bft)
04.08.2014 01:50 16,2 C 15,0 C 98 % 1013,0 hPa 0,0 l/m 0 min 0 min 0,0 UV-I 0 W/m 0,0 km/h (0 Bft)
04.08.2014 01:52 16,2 C 15,0 C 98 % 1013,0 hPa 0,0 l/m 0 min 2 min 0,0 UV-I 0 W/m 3,5 km/h (1 Bft)
04.08.2014 01:54 16,2 C 15,0 C 98 % 1012,9 hPa 0,0 l/m 0 min 2 min 0,0 UV-I 0 W/m 0,0 km/h (0 Bft)
04.08.2014 01:56 16,2 C 15,0 C 98 % 1012,9 hPa 0,0 l/m 0 min 2 min 0,0 UV-I 0 W/m 0,0 km/h (0 Bft)
04.08.2014 01:58 16,2 C 15,0 C 98 % 1012,9 hPa 0,0 l/m 0 min 2 min 0,0 UV-I 0 W/m 0,0 km/h (0 Bft)
04.08.2014 02:00 16,2 C 15,0 C 98 % 1012,9 hPa 0,0 l/m 0 min 2 min 0,0 UV-I 0 W/m 3,5 km/h (1 Bft)
04.08.2014 02:02 16,2 C 15,0 C 98 % 1012,9 hPa 0,0 l/m 0 min 2 min 0,0 UV-I 0 W/m 0,0 km/h (0 Bft)
04.08.2014 02:04 16,2 C 15,0 C 98 % 1012,8 hPa 0,0 l/m 0 min 2 min 0,0 UV-I 0 W/m 0,0 km/h (0 Bft)
04.08.2014 02:06 16,2 C 15,0 C 98 % 1012,9 hPa 0,0 l/m 0 min 0 min 0,0 UV-I 0 W/m 0,0 km/h (0 Bft)
04.08.2014 02:08 16,2 C 15,0 C 98 % 1012,8 hPa 0,0 l/m 0 min 0 min 0,0 UV-I 0 W/m 0,0 km/h (0 Bft)
04.08.2014 02:10 16,2 C 15,0 C 98 % 1012,8 hPa 0,0 l/m 0 min 2 min 0,0 UV-I 0 W/m 0,0 km/h (0 Bft)
04.08.2014 02:12 16,2 C 15,0 C 98 % 1012,8 hPa 0,0 l/m 0 min 2 min 0,0 UV-I 0 W/m 0,0 km/h (0 Bft)
04.08.2014 02:14 16,3 C 15,0 C 98 % 1012,8 hPa 0,0 l/m 0 min 2 min 0,0 UV-I 0 W/m 0,0 km/h (0 Bft)
04.08.2014 02:16 16,3 C 15,0 C 98 % 1012,8 hPa 0,0 l/m 0 min 0 min 0,0 UV-I 0 W/m 0,0 km/h (0 Bft)
04.08.2014 02:18 16,4 C 15,0 C 98 % 1012,9 hPa 0,0 l/m 0 min 2 min 0,0 UV-I 0 W/m 0,0 km/h (0 Bft)
04.08.2014 02:20 16,3 C 15,0 C 98 % 1012,9 hPa 0,0 l/m 0 min 2 min 0,0 UV-I 0 W/m 0,0 km/h (0 Bft)
04.08.2014 02:22 16,3 C 15,0 C 98 % 1012,9 hPa 0,0 l/m 0 min 2 min 0,0 UV-I 0 W/m 0,0 km/h (0 Bft)
04.08.2014 02:24 16,3 C 15,0 C 98 % 1012,9 hPa 0,0 l/m 0 min 2 min 0,0 UV-I 0 W/m 0,0 km/h (0 Bft)
04.08.2014 02:26 16,3 C 15,0 C 98 % 1012,8 hPa 0,0 l/m 0 min 2 min 0,0 UV-I 0 W/m 0,0 km/h (0 Bft)
04.08.2014 02:28 16,3 C 15,0 C 98 % 1012,8 hPa 0,0 l/m 0 min 2 min 0,0 UV-I 0 W/m 0,0 km/h (0 Bft)
04.08.2014 02:30 16,3 C 15,0 C 98 % 1012,8 hPa 0,0 l/m 0 min 2 min 0,0 UV-I 0 W/m 0,0 km/h (0 Bft)
04.08.2014 02:32 16,3 C 15,0 C 98 % 1012,8 hPa 0,0 l/m 0 min 2 min 0,0 UV-I 0 W/m 0,0 km/h (0 Bft)
04.08.2014 02:34 16,3 C 15,0 C 98 % 1012,8 hPa 0,0 l/m 0 min 2 min 0,0 UV-I 0 W/m 0,0 km/h (0 Bft)
04.08.2014 02:36 16,3 C 15,0 C 98 % 1012,8 hPa 0,0 l/m 0 min 2 min 0,0 UV-I 0 W/m 0,0 km/h (0 Bft)
04.08.2014 02:38 16,3 C 15,0 C 98 % 1012,8 hPa 0,0 l/m 0 min 2 min 0,0 UV-I 0 W/m 0,0 km/h (0 Bft)
04.08.2014 02:40 16,3 C 15,0 C 98 % 1012,7 hPa 0,2 l/m 0 min 2 min 0,0 UV-I 0 W/m 0,0 km/h (0 Bft)
04.08.2014 02:42 16,3 C 15,0 C 98 % 1012,7 hPa 0,0 l/m 0 min 2 min 0,0 UV-I 0 W/m 0,0 km/h (0 Bft)
04.08.2014 02:44 16,3 C 15,0 C 98 % 1012,7 hPa 0,0 l/m 0 min 2 min 0,0 UV-I 0 W/m 0,0 km/h (0 Bft)
04.08.2014 02:46 16,3 C 15,0 C 98 % 1012,7 hPa 0,0 l/m 0 min 2 min 0,0 UV-I 0 W/m 0,0 km/h (0 Bft)
04.08.2014 02:48 16,3 C 15,0 C 98 % 1012,7 hPa 0,0 l/m 0 min 2 min 0,0 UV-I 0 W/m 0,0 km/h (0 Bft)
04.08.2014 02:50 16,2 C 15,0 C 98 % 1012,7 hPa 0,0 l/m 0 min 0 min 0,0 UV-I 0 W/m 0,0 km/h (0 Bft)
04.08.2014 02:52 16,2 C 15,0 C 98 % 1012,7 hPa 0,0 l/m 0 min 0 min 0,0 UV-I 0 W/m 0,0 km/h (0 Bft)
04.08.2014 02:54 16,2 C 15,0 C 99 % 1012,7 hPa 0,0 l/m 0 min 0 min 0,0 UV-I 0 W/m 0,0 km/h (0 Bft)
04.08.2014 02:56 16,2 C 15,0 C 99 % 1012,7 hPa 0,0 l/m 0 min 0 min 0,0 UV-I 0 W/m 0,0 km/h (0 Bft)
04.08.2014 02:58 16,3 C 15,0 C 99 % 1012,7 hPa 0,0 l/m 0 min 0 min 0,0 UV-I 0 W/m 0,0 km/h (0 Bft)
04.08.2014 03:00 16,3 C 15,0 C 99 % 1012,6 hPa 0,0 l/m 0 min 0 min 0,0 UV-I 0 W/m 0,0 km/h (0 Bft)
04.08.2014 03:02 16,2 C 15,0 C 99 % 1012,6 hPa 0,0 l/m 0 min 0 min 0,0 UV-I 0 W/m 0,0 km/h (0 Bft)
04.08.2014 03:04 16,2 C 15,0 C 99 % 1012,6 hPa 0,0 l/m 0 min 0 min 0,0 UV-I 0 W/m 0,0 km/h (0 Bft)
04.08.2014 03:06 16,2 C 15,0 C 99 % 1012,6 hPa 0,0 l/m 0 min 0 min 0,0 UV-I 0 W/m 0,0 km/h (0 Bft)
04.08.2014 03:08 16,3 C 15,0 C 99 % 1012,7 hPa 0,0 l/m 0 min 0 min 0,0 UV-I 0 W/m 0,0 km/h (0 Bft)
04.08.2014 03:10 16,3 C 15,0 C 99 % 1012,7 hPa 0,0 l/m 0 min 0 min 0,0 UV-I 0 W/m 0,0 km/h (0 Bft)
04.08.2014 03:12 16,3 C 15,0 C 99 % 1012,7 hPa 0,0 l/m 0 min 0 min 0,0 UV-I 0 W/m 0,0 km/h (0 Bft)
04.08.2014 03:14 16,3 C 15,0 C 99 % 1012,6 hPa 0,0 l/m 0 min 0 min 0,0 UV-I 0 W/m 0,0 km/h (0 Bft)
04.08.2014 03:16 16,3 C 15,0 C 99 % 1012,7 hPa 0,0 l/m 0 min 0 min 0,0 UV-I 0 W/m 0,0 km/h (0 Bft)
04.08.2014 03:18 16,3 C 15,0 C 99 % 1012,6 hPa 0,0 l/m 0 min 0 min 0,0 UV-I 0 W/m 0,0 km/h (0 Bft)
04.08.2014 03:20 16,3 C 15,0 C 99 % 1012,6 hPa 0,0 l/m 0 min 0 min 0,0 UV-I 0 W/m 0,0 km/h (0 Bft)
04.08.2014 03:22 16,3 C 15,0 C 99 % 1012,6 hPa 0,0 l/m 0 min 0 min 0,0 UV-I 0 W/m 0,0 km/h (0 Bft)
04.08.2014 03:24 16,3 C 15,0 C 99 % 1012,7 hPa 0,0 l/m 0 min 0 min 0,0 UV-I 0 W/m 0,0 km/h (0 Bft)
04.08.2014 03:26 16,4 C 15,0 C 99 % 1012,8 hPa 0,0 l/m 0 min 0 min 0,0 UV-I 0 W/m 0,0 km/h (0 Bft)
04.08.2014 03:28 16,4 C 15,0 C 99 % 1012,8 hPa 0,0 l/m 0 min 0 min 0,0 UV-I 0 W/m 0,0 km/h (0 Bft)
04.08.2014 03:30 16,4 C 15,0 C 99 % 1012,8 hPa 0,0 l/m 0 min 0 min 0,0 UV-I 0 W/m 0,0 km/h (0 Bft)
04.08.2014 03:32 16,4 C 15,0 C 99 % 1012,7 hPa 0,0 l/m 0 min 0 min 0,0 UV-I 0 W/m 0,0 km/h (0 Bft)
04.08.2014 03:34 16,4 C 15,0 C 99 % 1012,7 hPa 0,0 l/m 0 min 0 min 0,0 UV-I 0 W/m 0,0 km/h (0 Bft)
04.08.2014 03:36 16,4 C 15,0 C 99 % 1012,8 hPa 0,0 l/m 0 min 0 min 0,0 UV-I 0 W/m 0,0 km/h (0 Bft)
04.08.2014 03:38 16,4 C 15,0 C 99 % 1012,7 hPa 0,0 l/m 0 min 0 min 0,0 UV-I 0 W/m 0,0 km/h (0 Bft)
04.08.2014 03:40 16,4 C 15,0 C 99 % 1012,8 hPa 0,0 l/m 0 min 0 min 0,0 UV-I 0 W/m 0,0 km/h (0 Bft)
04.08.2014 03:42 16,4 C 15,0 C 99 % 1012,8 hPa 0,0 l/m 0 min 0 min 0,0 UV-I 0 W/m 0,0 km/h (0 Bft)
04.08.2014 03:44 16,4 C 15,0 C 99 % 1012,7 hPa 0,0 l/m 0 min 0 min 0,0 UV-I 0 W/m 0,0 km/h (0 Bft)
04.08.2014 03:46 16,5 C 15,6 C 99 % 1012,7 hPa 0,0 l/m 0 min 0 min 0,0 UV-I 0 W/m 0,0 km/h (0 Bft)
04.08.2014 03:48 16,5 C 15,6 C 99 % 1012,7 hPa 0,0 l/m 0 min 0 min 0,0 UV-I 0 W/m 0,0 km/h (0 Bft)
04.08.2014 03:50 16,5 C 15,6 C 99 % 1012,9 hPa 0,0 l/m 0 min 0 min 0,0 UV-I 0 W/m 0,0 km/h (0 Bft)
04.08.2014 03:52 16,5 C 15,6 C 99 % 1012,8 hPa 0,0 l/m 0 min 0 min 0,0 UV-I 0 W/m 0,0 km/h (0 Bft)
04.08.2014 03:54 16,5 C 15,6 C 99 % 1012,8 hPa 0,0 l/m 0 min 0 min 0,0 UV-I 0 W/m 0,0 km/h (0 Bft)
04.08.2014 03:56 16,6 C 15,6 C 99 % 1012,7 hPa 0,0 l/m 0 min 0 min 0,0 UV-I 0 W/m 0,0 km/h (0 Bft)
04.08.2014 03:58 16,6 C 15,6 C 99 % 1012,7 hPa 0,0 l/m 0 min 0 min 0,0 UV-I 0 W/m 0,0 km/h (0 Bft)
04.08.2014 04:00 16,6 C 15,6 C 99 % 1012,8 hPa 0,0 l/m 0 min 0 min 0,0 UV-I 0 W/m 0,0 km/h (0 Bft)
04.08.2014 04:02 16,6 C 15,6 C 99 % 1012,8 hPa 0,0 l/m 0 min 0 min 0,0 UV-I 0 W/m 3,5 km/h (1 Bft)
04.08.2014 04:04 16,6 C 15,6 C 99 % 1012,8 hPa 0,0 l/m 0 min 0 min 0,0 UV-I 0 W/m 3,5 km/h (1 Bft)
04.08.2014 04:06 16,6 C 15,6 C 99 % 1012,9 hPa 0,0 l/m 0 min 0 min 0,0 UV-I 0 W/m 0,0 km/h (0 Bft)
04.08.2014 04:08 16,6 C 15,6 C 99 % 1012,9 hPa 0,0 l/m 0 min 0 min 0,0 UV-I 0 W/m 0,0 km/h (0 Bft)
04.08.2014 04:10 16,6 C 15,6 C 99 % 1012,9 hPa 0,0 l/m 0 min 0 min 0,0 UV-I 0 W/m 3,5 km/h (1 Bft)
04.08.2014 04:12 16,6 C 15,6 C 99 % 1012,8 hPa 0,0 l/m 0 min 0 min 0,0 UV-I 0 W/m 0,0 km/h (0 Bft)
04.08.2014 04:14 16,6 C 15,0 C 99 % 1013,0 hPa 0,0 l/m 0 min 0 min 0,0 UV-I 0 W/m 0,0 km/h (0 Bft)
04.08.2014 04:16 16,6 C 15,0 C 99 % 1012,9 hPa 0,0 l/m 0 min 0 min 0,0 UV-I 0 W/m 10,7 km/h (2 Bft)
04.08.2014 04:18 16,6 C 15,0 C 99 % 1012,9 hPa 0,0 l/m 0 min 0 min 0,0 UV-I 0 W/m 10,7 km/h (2 Bft)
04.08.2014 04:20 16,6 C 15,0 C 99 % 1013,0 hPa 0,0 l/m 0 min 0 min 0,0 UV-I 0 W/m 7,1 km/h (2 Bft)
04.08.2014 04:22 16,6 C 15,0 C 99 % 1013,0 hPa 0,0 l/m 0 min 0 min 0,0 UV-I 0 W/m 0,0 km/h (0 Bft)
04.08.2014 04:24 16,6 C 15,6 C 99 % 1013,0 hPa 0,0 l/m 0 min 0 min 0,0 UV-I 0 W/m 0,0 km/h (0 Bft)
04.08.2014 04:26 16,6 C 15,6 C 99 % 1013,0 hPa 0,0 l/m 0 min 0 min 0,0 UV-I 0 W/m 0,0 km/h (0 Bft)
04.08.2014 04:28 16,6 C 15,0 C 99 % 1012,9 hPa 0,0 l/m 0 min 0 min 0,0 UV-I 0 W/m 0,0 km/h (0 Bft)
04.08.2014 04:30 16,6 C 15,6 C 99 % 1012,9 hPa 0,0 l/m 0 min 0 min 0,0 UV-I 0 W/m 0,0 km/h (0 Bft)
04.08.2014 04:32 16,6 C 15,6 C 99 % 1013,0 hPa 0,0 l/m 0 min 0 min 0,0 UV-I 0 W/m 3,5 km/h (1 Bft)
04.08.2014 04:34 16,6 C 15,6 C 99 % 1012,9 hPa 0,0 l/m 0 min 0 min 0,0 UV-I 0 W/m 0,0 km/h (0 Bft)
04.08.2014 04:36 16,6 C 15,6 C 99 % 1012,9 hPa 0,0 l/m 0 min 0 min 0,0 UV-I 0 W/m 0,0 km/h (0 Bft)
04.08.2014 04:38 16,6 C 15,6 C 99 % 1012,9 hPa 0,0 l/m 0 min 0 min 0,0 UV-I 0 W/m 3,5 km/h (1 Bft)
04.08.2014 04:40 16,6 C 15,6 C 99 % 1013,0 hPa 0,0 l/m 0 min 0 min 0,0 UV-I 0 W/m 10,7 km/h (2 Bft)
04.08.2014 04:42 16,6 C 15,6 C 99 % 1012,9 hPa 0,0 l/m 0 min 0 min 0,0 UV-I 0 W/m 14,2 km/h (3 Bft)
04.08.2014 04:44 16,6 C 15,6 C 99 % 1012,9 hPa 0,0 l/m 0 min 0 min 0,0 UV-I 0 W/m 10,7 km/h (2 Bft)
04.08.2014 04:46 16,6 C 15,6 C 99 % 1012,9 hPa 0,0 l/m 0 min 0 min 0,0 UV-I 0 W/m 7,1 km/h (2 Bft)
04.08.2014 04:48 16,6 C 15,6 C 99 % 1012,9 hPa 0,0 l/m 0 min 0 min 0,0 UV-I 0 W/m 3,5 km/h (1 Bft)
04.08.2014 04:50 16,6 C 15,6 C 99 % 1013,0 hPa 0,0 l/m 0 min 0 min 0,0 UV-I 0 W/m 14,2 km/h (3 Bft)
04.08.2014 04:52 16,6 C 15,6 C 99 % 1013,0 hPa 0,0 l/m 0 min 0 min 0,0 UV-I 0 W/m 17,7 km/h (3 Bft)
04.08.2014 04:54 16,6 C 15,6 C 99 % 1013,0 hPa 0,0 l/m 0 min 0 min 0,0 UV-I 0 W/m 17,7 km/h (3 Bft)
04.08.2014 04:56 16,6 C 15,6 C 99 % 1013,0 hPa 0,0 l/m 0 min 0 min 0,0 UV-I 0 W/m 17,7 km/h (3 Bft)
04.08.2014 04:58 16,6 C 15,6 C 99 % 1013,0 hPa 0,0 l/m 0 min 0 min 0,0 UV-I 0 W/m 14,2 km/h (3 Bft)
04.08.2014 05:00 16,6 C 15,6 C 99 % 1013,0 hPa 0,0 l/m 0 min 0 min 0,0 UV-I 0 W/m 10,7 km/h (2 Bft)
04.08.2014 05:02 16,6 C 15,6 C 99 % 1013,0 hPa 0,0 l/m 0 min 0 min 0,0 UV-I 0 W/m 0,0 km/h (0 Bft)
04.08.2014 05:04 16,7 C 15,6 C 99 % 1013,0 hPa 0,0 l/m 0 min 0 min 0,0 UV-I 0 W/m 3,5 km/h (1 Bft)
04.08.2014 05:06 16,7 C 15,6 C 99 % 1013,0 hPa 0,0 l/m 0 min 0 min 0,0 UV-I 0 W/m 10,7 km/h (2 Bft)
04.08.2014 05:08 16,7 C 15,6 C 99 % 1013,0 hPa 0,0 l/m 0 min 0 min 0,0 UV-I 0 W/m 3,5 km/h (1 Bft)
04.08.2014 05:10 16,7 C 15,6 C 99 % 1013,1 hPa 0,0 l/m 0 min 0 min 0,0 UV-I 0 W/m 10,7 km/h (2 Bft)
04.08.2014 05:12 16,7 C 15,6 C 99 % 1013,1 hPa 0,0 l/m 0 min 0 min 0,0 UV-I 0 W/m 3,5 km/h (1 Bft)
04.08.2014 05:14 16,7 C 15,6 C 99 % 1013,2 hPa 0,0 l/m 0 min 0 min 0,0 UV-I 0 W/m 14,2 km/h (3 Bft)
04.08.2014 05:16 16,7 C 15,6 C 99 % 1013,2 hPa 0,0 l/m 0 min 0 min 0,0 UV-I 0 W/m 7,1 km/h (2 Bft)
04.08.2014 05:18 16,7 C 15,6 C 99 % 1013,2 hPa 0,0 l/m 0 min 0 min 0,0 UV-I 0 W/m 14,2 km/h (3 Bft)
04.08.2014 05:20 16,7 C 15,6 C 99 % 1013,2 hPa 0,0 l/m 0 min 0 min 0,0 UV-I 0 W/m 14,2 km/h (3 Bft)
04.08.2014 05:22 16,7 C 15,6 C 99 % 1013,1 hPa 0,0 l/m 0 min 0 min 0,0 UV-I 0 W/m 17,7 km/h (3 Bft)
04.08.2014 05:24 16,7 C 15,6 C 99 % 1013,2 hPa 0,0 l/m 0 min 0 min 0,0 UV-I 0 W/m 17,7 km/h (3 Bft)
04.08.2014 05:26 16,7 C 15,6 C 99 % 1013,2 hPa 0,0 l/m 0 min 0 min 0,0 UV-I 0 W/m 14,2 km/h (3 Bft)
04.08.2014 05:28 16,7 C 15,6 C 99 % 1013,2 hPa 0,0 l/m 0 min 0 min 0,0 UV-I 0 W/m 17,7 km/h (3 Bft)
04.08.2014 05:30 16,7 C 15,6 C 99 % 1013,2 hPa 0,0 l/m 0 min 0 min 0,0 UV-I 0 W/m 14,2 km/h (3 Bft)
04.08.2014 05:32 16,7 C 15,6 C 99 % 1013,2 hPa 0,0 l/m 0 min 0 min 0,0 UV-I 0 W/m 21,3 km/h (4 Bft)
04.08.2014 05:34 16,7 C 15,6 C 99 % 1013,2 hPa 0,0 l/m 0 min 0 min 0,0 UV-I 0 W/m 0,0 km/h (0 Bft)
04.08.2014 05:36 16,7 C 15,6 C 99 % 1013,2 hPa 0,0 l/m 0 min 0 min 0,0 UV-I 0 W/m 0,0 km/h (0 Bft)
04.08.2014 05:38 16,7 C 15,6 C 99 % 1013,3 hPa 0,0 l/m 0 min 0 min 0,0 UV-I 0 W/m 14,2 km/h (3 Bft)
04.08.2014 05:40 16,7 C 15,6 C 99 % 1013,3 hPa 0,0 l/m 0 min 0 min 0,0 UV-I 0 W/m 14,2 km/h (3 Bft)
04.08.2014 05:42 16,7 C 15,6 C 99 % 1013,3 hPa 0,0 l/m 0 min 0 min 0,0 UV-I 0 W/m 0,0 km/h (0 Bft)
04.08.2014 05:44 16,7 C 15,6 C 99 % 1013,3 hPa 0,0 l/m 0 min 0 min 0,0 UV-I 0 W/m 10,7 km/h (2 Bft)
04.08.2014 05:46 16,7 C 15,6 C 99 % 1013,3 hPa 0,0 l/m 0 min 0 min 0,0 UV-I 0 W/m 3,5 km/h (1 Bft)
04.08.2014 05:48 16,7 C 15,6 C 99 % 1013,4 hPa 0,0 l/m 0 min 0 min 0,0 UV-I 0 W/m 3,5 km/h (1 Bft)
04.08.2014 05:50 16,7 C 15,6 C 99 % 1013,4 hPa 0,0 l/m 0 min 0 min 0,0 UV-I 0 W/m 10,7 km/h (2 Bft)
04.08.2014 05:52 16,7 C 15,6 C 99 % 1013,4 hPa 0,0 l/m 0 min 0 min 0,0 UV-I 0 W/m 3,5 km/h (1 Bft)
04.08.2014 05:54 16,7 C 15,6 C 99 % 1013,3 hPa 0,0 l/m 0 min 0 min 0,0 UV-I 0 W/m 0,0 km/h (0 Bft)
04.08.2014 05:56 16,7 C 15,6 C 99 % 1013,4 hPa 0,0 l/m 0 min 0 min 0,0 UV-I 0 W/m 0,0 km/h (0 Bft)
04.08.2014 05:58 16,7 C 15,6 C 99 % 1013,4 hPa 0,0 l/m 0 min 0 min 0,0 UV-I 0 W/m 0,0 km/h (0 Bft)
04.08.2014 06:00 16,7 C 15,6 C 99 % 1013,3 hPa 0,0 l/m 0 min 0 min 0,0 UV-I 0 W/m 0,0 km/h (0 Bft)
04.08.2014 06:02 16,7 C 15,6 C 99 % 1013,4 hPa 0,0 l/m 0 min 0 min 0,0 UV-I 0 W/m 0,0 km/h (0 Bft)
04.08.2014 06:06 16,7 C 15,6 C 99 % 1013,4 hPa 0,0 l/m 0 min 0 min 0,0 UV-I 0 W/m 0,0 km/h (0 Bft)
04.08.2014 06:08 16,7 C 15,6 C 99 % 1013,4 hPa 0,0 l/m 0 min 0 min 0,0 UV-I 0 W/m 0,0 km/h (0 Bft)
04.08.2014 06:10 16,7 C 15,6 C 99 % 1013,4 hPa 0,0 l/m 0 min 0 min 0,0 UV-I 0 W/m 3,5 km/h (1 Bft)
04.08.2014 06:12 16,7 C 15,6 C 99 % 1013,4 hPa 0,0 l/m 0 min 0 min 0,0 UV-I 1 W/m 14,2 km/h (3 Bft)
04.08.2014 06:14 16,6 C 15,6 C 99 % 1013,5 hPa 0,0 l/m 0 min 0 min 0,0 UV-I 5 W/m 0,0 km/h (0 Bft)
04.08.2014 06:16 16,7 C 15,6 C 99 % 1013,5 hPa 0,0 l/m 0 min 0 min 0,0 UV-I 5 W/m 0,0 km/h (0 Bft)
04.08.2014 06:18 16,6 C 15,6 C 99 % 1013,5 hPa 0,0 l/m 0 min 0 min 0,0 UV-I 6 W/m 0,0 km/h (0 Bft)
04.08.2014 06:20 16,6 C 15,6 C 99 % 1013,5 hPa 0,0 l/m 0 min 0 min 0,0 UV-I 7 W/m 3,5 km/h (1 Bft)
04.08.2014 06:22 16,6 C 15,6 C 99 % 1013,6 hPa 0,0 l/m 0 min 0 min 0,0 UV-I 7 W/m 0,0 km/h (0 Bft)
04.08.2014 06:24 16,6 C 15,6 C 99 % 1013,6 hPa 0,0 l/m 0 min 0 min 0,0 UV-I 8 W/m 0,0 km/h (0 Bft)
04.08.2014 06:26 16,6 C 15,6 C 99 % 1013,6 hPa 0,0 l/m 0 min 0 min 0,0 UV-I 9 W/m 0,0 km/h (0 Bft)
04.08.2014 06:28 16,6 C 15,6 C 99 % 1013,6 hPa 0,0 l/m 0 min 0 min 0,0 UV-I 11 W/m 0,0 km/h (0 Bft)
04.08.2014 06:30 16,6 C 15,6 C 99 % 1013,6 hPa 0,0 l/m 0 min 0 min 0,0 UV-I 11 W/m 0,0 km/h (0 Bft)
04.08.2014 06:32 16,7 C 15,6 C 99 % 1013,6 hPa 0,0 l/m 0 min 0 min 0,0 UV-I 12 W/m 0,0 km/h (0 Bft)
04.08.2014 06:34 16,7 C 15,6 C 99 % 1013,6 hPa 0,0 l/m 0 min 0 min 0,0 UV-I 12 W/m 0,0 km/h (0 Bft)
04.08.2014 06:36 16,7 C 15,6 C 99 % 1013,7 hPa 0,0 l/m 0 min 0 min 0,0 UV-I 13 W/m 0,0 km/h (0 Bft)
04.08.2014 06:38 16,7 C 15,6 C 99 % 1013,7 hPa 0,0 l/m 0 min 0 min 0,0 UV-I 14 W/m 0,0 km/h (0 Bft)
04.08.2014 06:40 16,7 C 15,6 C 99 % 1013,7 hPa 0,0 l/m 0 min 0 min 0,0 UV-I 16 W/m 0,0 km/h (0 Bft)
04.08.2014 06:42 16,7 C 15,6 C 99 % 1013,7 hPa 0,0 l/m 0 min 0 min 0,0 UV-I 17 W/m 0,0 km/h (0 Bft)
04.08.2014 06:44 16,7 C 15,6 C 99 % 1013,8 hPa 0,0 l/m 0 min 0 min 0,0 UV-I 18 W/m 0,0 km/h (0 Bft)
04.08.2014 06:46 16,7 C 15,6 C 99 % 1013,8 hPa 0,0 l/m 0 min 0 min 0,0 UV-I 19 W/m 0,0 km/h (0 Bft)
04.08.2014 06:48 16,7 C 15,6 C 99 % 1013,8 hPa 0,0 l/m 0 min 0 min 0,0 UV-I 19 W/m 0,0 km/h (0 Bft)
04.08.2014 06:50 16,7 C 15,6 C 99 % 1013,9 hPa 0,0 l/m 0 min 0 min 0,0 UV-I 19 W/m 0,0 km/h (0 Bft)
04.08.2014 06:52 16,7 C 15,6 C 99 % 1013,9 hPa 0,0 l/m 0 min 0 min 0,0 UV-I 21 W/m 0,0 km/h (0 Bft)
04.08.2014 06:54 16,7 C 15,6 C 99 % 1013,9 hPa 0,0 l/m 0 min 0 min 0,0 UV-I 21 W/m 0,0 km/h (0 Bft)
04.08.2014 06:56 16,7 C 15,6 C 99 % 1013,9 hPa 0,0 l/m 0 min 0 min 0,0 UV-I 22 W/m 0,0 km/h (0 Bft)
04.08.2014 06:58 16,7 C 15,6 C 99 % 1013,9 hPa 0,0 l/m 0 min 0 min 0,0 UV-I 24 W/m 0,0 km/h (0 Bft)
04.08.2014 07:00 16,8 C 15,6 C 99 % 1013,9 hPa 0,0 l/m 0 min 2 min 0,0 UV-I 26 W/m 0,0 km/h (0 Bft)
04.08.2014 07:02 16,8 C 15,6 C 99 % 1013,9 hPa 0,0 l/m 0 min 0 min 0,0 UV-I 27 W/m 0,0 km/h (0 Bft)
04.08.2014 07:04 16,8 C 15,6 C 99 % 1013,9 hPa 0,0 l/m 0 min 0 min 0,0 UV-I 29 W/m 0,0 km/h (0 Bft)
04.08.2014 07:06 16,8 C 15,6 C 99 % 1013,9 hPa 0,0 l/m 0 min 0 min 0,0 UV-I 32 W/m 3,5 km/h (1 Bft)
04.08.2014 07:08 16,8 C 15,6 C 99 % 1013,9 hPa 0,0 l/m 0 min 0 min 0,0 UV-I 32 W/m 0,0 km/h (0 Bft)
04.08.2014 07:10 16,8 C 16,1 C 99 % 1013,9 hPa 0,0 l/m 0 min 0 min 0,0 UV-I 33 W/m 0,0 km/h (0 Bft)
04.08.2014 07:12 16,8 C 16,1 C 99 % 1013,9 hPa 0,0 l/m 0 min 0 min 0,0 UV-I 35 W/m 0,0 km/h (0 Bft)
04.08.2014 07:14 16,8 C 15,6 C 99 % 1013,9 hPa 0,0 l/m 0 min 0 min 0,0 UV-I 36 W/m 0,0 km/h (0 Bft)
04.08.2014 07:16 16,8 C 15,6 C 99 % 1014,0 hPa 0,0 l/m 0 min 0 min 0,0 UV-I 37 W/m 0,0 km/h (0 Bft)
04.08.2014 07:18 16,8 C 16,1 C 99 % 1014,0 hPa 0,0 l/m 0 min 0 min 0,0 UV-I 37 W/m 0,0 km/h (0 Bft)
04.08.2014 07:20 16,9 C 16,1 C 99 % 1014,0 hPa 0,0 l/m 0 min 0 min 0,0 UV-I 38 W/m 0,0 km/h (0 Bft)
04.08.2014 07:22 16,9 C 16,1 C 99 % 1014,0 hPa 0,0 l/m 0 min 2 min 0,0 UV-I 40 W/m 0,0 km/h (0 Bft)
04.08.2014 07:24 16,9 C 16,1 C 99 % 1014,0 hPa 0,0 l/m 0 min 0 min 0,0 UV-I 42 W/m 0,0 km/h (0 Bft)
04.08.2014 07:26 16,9 C 16,1 C 99 % 1014,0 hPa 0,0 l/m 0 min 0 min 0,0 UV-I 47 W/m 0,0 km/h (0 Bft)
04.08.2014 07:28 16,9 C 16,1 C 99 % 1014,0 hPa 0,0 l/m 0 min 0 min 0,0 UV-I 51 W/m 0,0 km/h (0 Bft)
04.08.2014 07:30 16,9 C 16,1 C 99 % 1014,0 hPa 0,0 l/m 0 min 0 min 0,0 UV-I 55 W/m 0,0 km/h (0 Bft)
04.08.2014 07:32 17,1 C 16,1 C 99 % 1014,0 hPa 0,0 l/m 0 min 0 min 0,0 UV-I 61 W/m 0,0 km/h (0 Bft)
04.08.2014 07:34 17,0 C 16,1 C 99 % 1014,1 hPa 0,0 l/m 0 min 0 min 0,0 UV-I 68 W/m 10,7 km/h (2 Bft)
04.08.2014 07:36 17,1 C 16,1 C 99 % 1014,1 hPa 0,0 l/m 0 min 0 min 0,0 UV-I 74 W/m 7,1 km/h (2 Bft)
04.08.2014 07:38 17,1 C 16,1 C 99 % 1014,1 hPa 0,0 l/m 0 min 0 min 0,0 UV-I 82 W/m 7,1 km/h (2 Bft)
04.08.2014 07:40 17,1 C 16,1 C 99 % 1014,2 hPa 0,0 l/m 0 min 0 min 0,0 UV-I 90 W/m 10,7 km/h (2 Bft)
04.08.2014 07:42 17,2 C 16,1 C 99 % 1014,1 hPa 0,0 l/m 0 min 0 min 0,0 UV-I 96 W/m 14,2 km/h (3 Bft)
04.08.2014 07:44 17,2 C 16,1 C 100 % 1014,2 hPa 0,0 l/m 0 min 0 min 0,0 UV-I 102 W/m 17,7 km/h (3 Bft)
04.08.2014 07:46 17,2 C 16,1 C 100 % 1014,3 hPa 0,0 l/m 0 min 0 min 0,0 UV-I 109 W/m 17,7 km/h (3 Bft)
04.08.2014 07:48 17,2 C 16,7 C 100 % 1014,2 hPa 0,0 l/m 0 min 0 min 0,0 UV-I 117 W/m 17,7 km/h (3 Bft)
04.08.2014 07:50 17,3 C 16,7 C 100 % 1014,3 hPa 0,0 l/m 2 min 0 min 0,0 UV-I 127 W/m 24,7 km/h (4 Bft)
04.08.2014 07:52 17,3 C 16,7 C 100 % 1014,4 hPa 0,0 l/m 2 min 0 min 0,0 UV-I 136 W/m 21,3 km/h (4 Bft)
04.08.2014 07:54 17,4 C 16,7 C 99 % 1014,4 hPa 0,0 l/m 2 min 0 min 0,0 UV-I 148 W/m 10,7 km/h (2 Bft)
04.08.2014 07:56 17,4 C 16,7 C 99 % 1014,5 hPa 0,0 l/m 2 min 0 min 0,0 UV-I 154 W/m 14,2 km/h (3 Bft)
04.08.2014 07:58 17,5 C 16,7 C 99 % 1014,5 hPa 0,0 l/m 2 min 0 min 0,0 UV-I 150 W/m 14,2 km/h (3 Bft)
04.08.2014 08:00 17,6 C 16,7 C 100 % 1014,5 hPa 0,0 l/m 2 min 0 min 0,0 UV-I 140 W/m 14,2 km/h (3 Bft)
04.08.2014 08:02 17,6 C 16,7 C 100 % 1014,5 hPa 0,0 l/m 0 min 0 min 0,0 UV-I 135 W/m 10,7 km/h (2 Bft)
04.08.2014 08:04 17,7 C 17,2 C 100 % 1014,5 hPa 0,0 l/m 2 min 0 min 0,0 UV-I 144 W/m 14,2 km/h (3 Bft)
04.08.2014 08:06 17,6 C 16,7 C 100 % 1014,5 hPa 0,0 l/m 2 min 0 min 0,0 UV-I 150 W/m 10,7 km/h (2 Bft)
04.08.2014 08:08 17,6 C 17,2 C 100 % 1014,6 hPa 0,0 l/m 2 min 0 min 0,0 UV-I 151 W/m 10,7 km/h (2 Bft)
04.08.2014 08:10 17,6 C 17,2 C 100 % 1014,5 hPa 0,0 l/m 2 min 0 min 0,0 UV-I 155 W/m 10,7 km/h (2 Bft)
04.08.2014 08:12 17,5 C 16,7 C 99 % 1014,6 hPa 0,0 l/m 2 min 0 min 0,0 UV-I 164 W/m 7,1 km/h (2 Bft)
04.08.2014 08:14 17,6 C 16,7 C 100 % 1014,5 hPa 0,0 l/m 2 min 0 min 0,0 UV-I 164 W/m 3,5 km/h (1 Bft)
04.08.2014 08:16 17,7 C 16,7 C 100 % 1014,6 hPa 0,0 l/m 0 min 0 min 0,0 UV-I 150 W/m 0,0 km/h (0 Bft)
04.08.2014 08:18 17,8 C 16,7 C 99 % 1014,5 hPa 0,0 l/m 0 min 0 min 0,0 UV-I 142 W/m 0,0 km/h (0 Bft)
04.08.2014 08:20 17,7 C 16,7 C 99 % 1014,5 hPa 0,0 l/m 0 min 0 min 0,0 UV-I 141 W/m 0,0 km/h (0 Bft)
04.08.2014 08:22 17,6 C 16,7 C 100 % 1014,5 hPa 0,0 l/m 0 min 0 min 0,0 UV-I 143 W/m 0,0 km/h (0 Bft)
04.08.2014 08:24 17,6 C 16,7 C 99 % 1014,5 hPa 0,0 l/m 0 min 0 min 0,0 UV-I 156 W/m 0,0 km/h (0 Bft)
04.08.2014 08:26 17,6 C 16,7 C 99 % 1014,6 hPa 0,0 l/m 2 min 0 min 0,0 UV-I 177 W/m 0,0 km/h (0 Bft)
04.08.2014 08:28 17,7 C 16,7 C 99 % 1014,6 hPa 0,0 l/m 2 min 0 min 0,0 UV-I 203 W/m 0,0 km/h (0 Bft)
04.08.2014 08:30 17,8 C 16,7 C 99 % 1014,7 hPa 0,0 l/m 0 min 0 min 0,0 UV-I 162 W/m 0,0 km/h (0 Bft)
04.08.2014 08:32 17,8 C 16,7 C 99 % 1014,7 hPa 0,0 l/m 0 min 0 min 0,0 UV-I 149 W/m 3,5 km/h (1 Bft)
04.08.2014 08:34 17,9 C 16,7 C 99 % 1014,7 hPa 0,0 l/m 0 min 0 min 0,0 UV-I 144 W/m 3,5 km/h (1 Bft)
04.08.2014 08:36 17,8 C 16,7 C 99 % 1014,7 hPa 0,0 l/m 0 min 0 min 0,0 UV-I 147 W/m 3,5 km/h (1 Bft)
04.08.2014 08:38 17,8 C 16,7 C 99 % 1014,7 hPa 0,0 l/m 0 min 0 min 0,0 UV-I 146 W/m 17,7 km/h (3 Bft)
04.08.2014 08:40 17,7 C 16,7 C 99 % 1014,8 hPa 0,0 l/m 0 min 0 min 0,0 UV-I 153 W/m 10,7 km/h (2 Bft)
04.08.2014 08:42 17,7 C 16,7 C 99 % 1014,7 hPa 0,0 l/m 0 min 0 min 0,0 UV-I 162 W/m 14,2 km/h (3 Bft)
04.08.2014 08:44 17,7 C 16,7 C 99 % 1014,7 hPa 0,0 l/m 2 min 0 min 0,0 UV-I 223 W/m 3,5 km/h (1 Bft)
04.08.2014 08:46 17,7 C 16,7 C 99 % 1014,8 hPa 0,0 l/m 2 min 0 min 0,0 UV-I 214 W/m 0,0 km/h (0 Bft)
04.08.2014 08:48 17,7 C 16,7 C 99 % 1014,7 hPa 0,0 l/m 2 min 0 min 0,0 UV-I 196 W/m 0,0 km/h (0 Bft)
04.08.2014 08:50 17,8 C 16,7 C 99 % 1014,8 hPa 0,0 l/m 0 min 0 min 0,0 UV-I 190 W/m 10,7 km/h (2 Bft)
04.08.2014 08:52 17,8 C 16,7 C 99 % 1014,7 hPa 0,0 l/m 0 min 0 min 0,0 UV-I 193 W/m 10,7 km/h (2 Bft)
04.08.2014 08:54 17,9 C 16,7 C 99 % 1014,7 hPa 0,0 l/m 0 min 0 min 0,0 UV-I 184 W/m 14,2 km/h (3 Bft)
04.08.2014 08:56 17,8 C 16,7 C 98 % 1014,7 hPa 0,0 l/m 2 min 0 min 0,0 UV-I 235 W/m 14,2 km/h (3 Bft)
04.08.2014 08:58 17,8 C 16,7 C 98 % 1014,8 hPa 0,0 l/m 2 min 0 min 0,0 UV-I 223 W/m 10,7 km/h (2 Bft)
04.08.2014 09:00 17,9 C 16,7 C 98 % 1014,8 hPa 0,0 l/m 2 min 0 min 0,0 UV-I 239 W/m 0,0 km/h (0 Bft)
04.08.2014 09:02 17,9 C 16,7 C 98 % 1014,8 hPa 0,0 l/m 2 min 0 min 0,0 UV-I 271 W/m 7,1 km/h (2 Bft)
04.08.2014 09:04 17,9 C 16,7 C 98 % 1014,9 hPa 0,0 l/m 2 min 0 min 0,0 UV-I 245 W/m 10,7 km/h (2 Bft)
04.08.2014 09:06 17,8 C 16,7 C 98 % 1014,9 hPa 0,0 l/m 0 min 0 min 0,0 UV-I 181 W/m 10,7 km/h (2 Bft)
04.08.2014 09:08 17,9 C 16,7 C 97 % 1014,8 hPa 0,0 l/m 0 min 0 min 0,0 UV-I 149 W/m 10,7 km/h (2 Bft)
04.08.2014 09:10 17,8 C 16,7 C 97 % 1014,9 hPa 0,0 l/m 0 min 0 min 0,0 UV-I 150 W/m 7,1 km/h (2 Bft)
04.08.2014 09:12 17,8 C 16,7 C 97 % 1015,0 hPa 0,0 l/m 2 min 0 min 0,3 UV-I 233 W/m 14,2 km/h (3 Bft)
04.08.2014 09:14 17,9 C 16,7 C 97 % 1015,0 hPa 0,0 l/m 2 min 0 min 0,5 UV-I 278 W/m 0,0 km/h (0 Bft)
04.08.2014 09:16 17,9 C 16,7 C 97 % 1015,0 hPa 0,0 l/m 0 min 0 min 0,7 UV-I 179 W/m 7,1 km/h (2 Bft)
04.08.2014 09:18 17,9 C 16,7 C 97 % 1015,0 hPa 0,0 l/m 2 min 0 min 0,7 UV-I 304 W/m 10,7 km/h (2 Bft)
04.08.2014 09:20 18,1 C 16,7 C 97 % 1015,1 hPa 0,0 l/m 2 min 0 min 0,8 UV-I 336 W/m 7,1 km/h (2 Bft)
04.08.2014 09:22 18,1 C 16,7 C 96 % 1015,0 hPa 0,0 l/m 2 min 0 min 0,8 UV-I 368 W/m 7,1 km/h (2 Bft)
04.08.2014 09:24 18,2 C 16,7 C 96 % 1015,0 hPa 0,0 l/m 2 min 0 min 0,8 UV-I 318 W/m 21,3 km/h (4 Bft)
04.08.2014 09:26 18,2 C 16,7 C 96 % 1015,0 hPa 0,0 l/m 2 min 0 min 0,8 UV-I 291 W/m 0,0 km/h (0 Bft)
04.08.2014 09:28 18,3 C 16,7 C 95 % 1015,0 hPa 0,0 l/m 2 min 0 min 0,8 UV-I 337 W/m 10,7 km/h (2 Bft)
04.08.2014 09:30 18,4 C 16,7 C 95 % 1015,0 hPa 0,0 l/m 2 min 0 min 0,9 UV-I 356 W/m 14,2 km/h (3 Bft)
04.08.2014 09:32 18,5 C 16,7 C 94 % 1015,0 hPa 0,0 l/m 2 min 0 min 1,0 UV-I 382 W/m 17,7 km/h (3 Bft)
04.08.2014 09:34 18,6 C 16,7 C 93 % 1015,0 hPa 0,0 l/m 2 min 0 min 0,9 UV-I 361 W/m 10,7 km/h (2 Bft)
04.08.2014 09:36 18,5 C 16,7 C 91 % 1015,0 hPa 0,0 l/m 2 min 0 min 0,9 UV-I 311 W/m 10,7 km/h (2 Bft)
04.08.2014 09:38 18,6 C 16,7 C 91 % 1015,0 hPa 0,0 l/m 2 min 0 min 0,9 UV-I 324 W/m 10,7 km/h (2 Bft)
04.08.2014 09:40 18,7 C 17,2 C 91 % 1015,0 hPa 0,0 l/m 2 min 0 min 1,2 UV-I 399 W/m 14,2 km/h (3 Bft)
04.08.2014 09:42 18,9 C 17,8 C 92 % 1015,1 hPa 0,0 l/m 2 min 0 min 1,4 UV-I 521 W/m 7,1 km/h (2 Bft)
04.08.2014 09:44 18,9 C 17,8 C 91 % 1015,1 hPa 0,0 l/m 2 min 0 min 1,4 UV-I 506 W/m 10,7 km/h (2 Bft)
04.08.2014 09:46 19,0 C 17,8 C 90 % 1015,1 hPa 0,0 l/m 2 min 0 min 1,4 UV-I 488 W/m 10,7 km/h (2 Bft)
04.08.2014 09:48 19,1 C 18,3 C 90 % 1015,1 hPa 0,0 l/m 2 min 0 min 1,5 UV-I 530 W/m 14,2 km/h (3 Bft)
04.08.2014 09:50 19,2 C 18,3 C 89 % 1015,1 hPa 0,0 l/m 2 min 0 min 1,5 UV-I 521 W/m 17,7 km/h (3 Bft)
04.08.2014 09:52 19,2 C 18,3 C 89 % 1015,1 hPa 0,0 l/m 2 min 0 min 1,5 UV-I 511 W/m 14,2 km/h (3 Bft)
04.08.2014 09:54 19,3 C 18,3 C 89 % 1015,1 hPa 0,0 l/m 2 min 0 min 1,4 UV-I 508 W/m 3,5 km/h (1 Bft)
04.08.2014 09:56 19,4 C 20,0 C 89 % 1015,1 hPa 0,0 l/m 2 min 0 min 1,4 UV-I 465 W/m 0,0 km/h (0 Bft)
04.08.2014 09:58 19,4 C 20,6 C 88 % 1015,1 hPa 0,0 l/m 2 min 0 min 1,5 UV-I 471 W/m 0,0 km/h (0 Bft)
04.08.2014 10:00 19,5 C 20,6 C 87 % 1015,1 hPa 0,0 l/m 2 min 0 min 1,6 UV-I 446 W/m 14,2 km/h (3 Bft)
04.08.2014 10:02 19,6 C 21,7 C 86 % 1015,1 hPa 0,0 l/m 2 min 0 min 1,7 UV-I 492 W/m 10,7 km/h (2 Bft)
04.08.2014 10:04 19,6 C 22,2 C 86 % 1015,1 hPa 0,0 l/m 2 min 0 min 1,8 UV-I 535 W/m 14,2 km/h (3 Bft)
04.08.2014 10:06 19,8 C 22,8 C 87 % 1015,1 hPa 0,0 l/m 2 min 0 min 1,9 UV-I 560 W/m 0,0 km/h (0 Bft)
04.08.2014 10:08 20,0 C 22,8 C 86 % 1015,1 hPa 0,0 l/m 2 min 0 min 1,9 UV-I 548 W/m 21,3 km/h (4 Bft)
04.08.2014 10:10 20,1 C 22,2 C 86 % 1015,1 hPa 0,0 l/m 2 min 0 min 2,0 UV-I 595 W/m 17,7 km/h (3 Bft)
04.08.2014 10:12 20,1 C 22,8 C 84 % 1015,1 hPa 0,0 l/m 2 min 0 min 2,1 UV-I 625 W/m 28,2 km/h (4 Bft)
04.08.2014 10:14 20,1 C 23,3 C 82 % 1015,1 hPa 0,0 l/m 2 min 0 min 2,2 UV-I 663 W/m 21,3 km/h (4 Bft)
04.08.2014 10:16 20,3 C 23,3 C 83 % 1015,1 hPa 0,0 l/m 2 min 0 min 2,1 UV-I 646 W/m 14,2 km/h (3 Bft)
04.08.2014 10:18 20,4 C 21,7 C 83 % 1015,1 hPa 0,0 l/m 2 min 0 min 1,5 UV-I 511 W/m 17,7 km/h (3 Bft)
04.08.2014 10:20 20,2 C 20,6 C 82 % 1015,2 hPa 0,0 l/m 0 min 0 min 1,3 UV-I 216 W/m 24,7 km/h (4 Bft)
04.08.2014 10:22 20,0 C 20,0 C 83 % 1015,2 hPa 0,0 l/m 0 min 0 min 1,5 UV-I 296 W/m 17,7 km/h (3 Bft)
04.08.2014 10:24 19,8 C 20,0 C 82 % 1015,2 hPa 0,0 l/m 2 min 0 min 1,5 UV-I 331 W/m 14,2 km/h (3 Bft)
04.08.2014 10:26 19,8 C 20,0 C 81 % 1015,2 hPa 0,0 l/m 2 min 0 min 1,7 UV-I 318 W/m 0,0 km/h (0 Bft)
04.08.2014 10:28 19,9 C 21,1 C 83 % 1015,3 hPa 0,0 l/m 2 min 0 min 2,1 UV-I 534 W/m 14,2 km/h (3 Bft)
04.08.2014 10:30 20,1 C 22,2 C 84 % 1015,3 hPa 0,0 l/m 2 min 0 min 2,3 UV-I 561 W/m 17,7 km/h (3 Bft)
04.08.2014 10:32 20,3 C 22,8 C 84 % 1015,3 hPa 0,0 l/m 2 min 0 min 2,4 UV-I 613 W/m 17,7 km/h (3 Bft)
04.08.2014 10:34 20,4 C 23,3 C 82 % 1015,3 hPa 0,0 l/m 2 min 0 min 2,3 UV-I 594 W/m 14,2 km/h (3 Bft)
04.08.2014 10:36 20,5 C 23,3 C 82 % 1015,2 hPa 0,0 l/m 2 min 0 min 2,6 UV-I 645 W/m 14,2 km/h (3 Bft)
04.08.2014 10:38 20,6 C 23,3 C 81 % 1015,1 hPa 0,0 l/m 2 min 0 min 2,6 UV-I 643 W/m 14,2 km/h (3 Bft)
04.08.2014 10:40 20,7 C 22,8 C 82 % 1015,2 hPa 0,0 l/m 2 min 0 min 2,6 UV-I 658 W/m 14,2 km/h (3 Bft)
04.08.2014 10:42 20,8 C 22,8 C 80 % 1015,2 hPa 0,0 l/m 2 min 0 min 2,7 UV-I 670 W/m 21,3 km/h (4 Bft)
04.08.2014 10:44 20,8 C 22,2 C 80 % 1015,2 hPa 0,0 l/m 2 min 0 min 2,7 UV-I 678 W/m 21,3 km/h (4 Bft)
04.08.2014 10:46 20,8 C 21,7 C 79 % 1015,2 hPa 0,0 l/m 2 min 0 min 2,8 UV-I 676 W/m 24,7 km/h (4 Bft)
04.08.2014 10:48 20,9 C 21,1 C 80 % 1015,3 hPa 0,0 l/m 2 min 0 min 2,3 UV-I 535 W/m 14,2 km/h (3 Bft)
04.08.2014 10:50 21,0 C 22,2 C 81 % 1015,4 hPa 0,0 l/m 2 min 0 min 2,7 UV-I 496 W/m 0,0 km/h (0 Bft)
04.08.2014 10:52 21,1 C 21,7 C 82 % 1015,3 hPa 0,0 l/m 2 min 0 min 2,1 UV-I 656 W/m 17,7 km/h (3 Bft)
04.08.2014 10:54 21,1 C 21,7 C 81 % 1015,4 hPa 0,0 l/m 2 min 0 min 2,4 UV-I 656 W/m 17,7 km/h (3 Bft)
04.08.2014 10:56 21,2 C 22,2 C 82 % 1015,4 hPa 0,0 l/m 2 min 0 min 2,6 UV-I 678 W/m 21,3 km/h (4 Bft)
04.08.2014 10:58 21,2 C 21,7 C 80 % 1015,4 hPa 0,0 l/m 2 min 0 min 1,9 UV-I 514 W/m 21,3 km/h (4 Bft)
04.08.2014 11:00 21,1 C 21,7 C 80 % 1015,4 hPa 0,0 l/m 2 min 0 min 1,7 UV-I 397 W/m 17,7 km/h (3 Bft)
04.08.2014 11:02 20,9 C 20,6 C 80 % 1015,5 hPa 0,0 l/m 0 min 0 min 1,4 UV-I 258 W/m 24,7 km/h (4 Bft)
04.08.2014 11:04 20,7 C 20,0 C 80 % 1015,5 hPa 0,0 l/m 0 min 0 min 1,5 UV-I 245 W/m 24,7 km/h (4 Bft)
04.08.2014 11:06 20,5 C 19,4 C 80 % 1015,5 hPa 0,0 l/m 0 min 0 min 1,6 UV-I 241 W/m 21,3 km/h (4 Bft)
04.08.2014 11:08 20,3 C 19,4 C 82 % 1015,5 hPa 0,0 l/m 0 min 0 min 1,9 UV-I 238 W/m 10,7 km/h (2 Bft)
04.08.2014 11:10 20,3 C 20,0 C 82 % 1015,5 hPa 0,0 l/m 2 min 0 min 2,9 UV-I 526 W/m 0,0 km/h (0 Bft)
04.08.2014 11:12 20,5 C 20,6 C 84 % 1015,5 hPa 0,0 l/m 2 min 0 min 2,9 UV-I 718 W/m 3,5 km/h (1 Bft)
04.08.2014 11:14 20,8 C 21,1 C 82 % 1015,5 hPa 0,0 l/m 2 min 0 min 2,9 UV-I 795 W/m 24,7 km/h (4 Bft)
04.08.2014 11:16 21,0 C 21,1 C 80 % 1015,5 hPa 0,0 l/m 2 min 0 min 2,7 UV-I 672 W/m 24,7 km/h (4 Bft)
04.08.2014 11:18 21,1 C 21,1 C 80 % 1015,4 hPa 0,0 l/m 0 min 0 min 2,5 UV-I 339 W/m 14,2 km/h (3 Bft)
04.08.2014 11:20 21,1 C 20,6 C 81 % 1015,4 hPa 0,0 l/m 0 min 0 min 2,0 UV-I 339 W/m 17,7 km/h (3 Bft)
04.08.2014 11:22 21,2 C 20,6 C 82 % 1015,5 hPa 0,0 l/m 2 min 0 min 3,1 UV-I 424 W/m 21,3 km/h (4 Bft)
04.08.2014 11:24 21,3 C 21,1 C 80 % 1015,4 hPa 0,0 l/m 2 min 0 min 3,4 UV-I 717 W/m 17,7 km/h (3 Bft)
04.08.2014 11:26 21,3 C 21,1 C 80 % 1015,4 hPa 0,0 l/m 2 min 0 min 3,4 UV-I 735 W/m 14,2 km/h (3 Bft)
04.08.2014 11:28 21,4 C 21,1 C 79 % 1015,4 hPa 0,0 l/m 2 min 0 min 3,5 UV-I 769 W/m 21,3 km/h (4 Bft)
04.08.2014 11:30 21,4 C 21,1 C 79 % 1015,4 hPa 0,0 l/m 2 min 0 min 3,4 UV-I 786 W/m 24,7 km/h (4 Bft)
04.08.2014 11:32 21,5 C 21,7 C 77 % 1015,4 hPa 0,0 l/m 2 min 0 min 3,5 UV-I 789 W/m 17,7 km/h (3 Bft)
04.08.2014 11:34 21,7 C 21,7 C 78 % 1015,5 hPa 0,0 l/m 2 min 0 min 3,0 UV-I 765 W/m 21,3 km/h (4 Bft)
04.08.2014 11:36 21,5 C 21,1 C 74 % 1015,5 hPa 0,0 l/m 0 min 0 min 2,1 UV-I 334 W/m 21,3 km/h (4 Bft)
04.08.2014 11:38 21,4 C 21,1 C 76 % 1015,5 hPa 0,0 l/m 0 min 0 min 3,4 UV-I 346 W/m 21,3 km/h (4 Bft)
04.08.2014 11:40 21,3 C 21,1 C 75 % 1015,5 hPa 0,0 l/m 2 min 0 min 3,4 UV-I 710 W/m 21,3 km/h (4 Bft)
04.08.2014 11:42 21,4 C 22,2 C 76 % 1015,5 hPa 0,0 l/m 2 min 0 min 3,6 UV-I 711 W/m 21,3 km/h (4 Bft)
04.08.2014 11:44 21,4 C 22,8 C 77 % 1015,5 hPa 0,0 l/m 2 min 0 min 3,7 UV-I 742 W/m 14,2 km/h (3 Bft)
04.08.2014 11:46 21,6 C 23,3 C 78 % 1015,5 hPa 0,0 l/m 2 min 0 min 3,8 UV-I 732 W/m 10,7 km/h (2 Bft)
04.08.2014 11:48 21,7 C 23,9 C 77 % 1015,5 hPa 0,0 l/m 2 min 0 min 3,8 UV-I 758 W/m 10,7 km/h (2 Bft)
04.08.2014 11:50 21,9 C 23,9 C 77 % 1015,6 hPa 0,0 l/m 2 min 0 min 4,0 UV-I 813 W/m 14,2 km/h (3 Bft)
04.08.2014 11:52 21,9 C 23,3 C 74 % 1015,6 hPa 0,0 l/m 2 min 0 min 3,5 UV-I 817 W/m 21,3 km/h (4 Bft)
04.08.2014 11:54 21,9 C 23,3 C 76 % 1015,6 hPa 0,0 l/m 2 min 0 min 3,4 UV-I 817 W/m 21,3 km/h (4 Bft)
04.08.2014 11:56 21,8 C 22,8 C 72 % 1015,6 hPa 0,0 l/m 2 min 0 min 3,3 UV-I 817 W/m 21,3 km/h (4 Bft)
04.08.2014 11:58 21,8 C 22,8 C 74 % 1015,7 hPa 0,0 l/m 2 min 0 min 3,8 UV-I 764 W/m 21,3 km/h (4 Bft)
04.08.2014 12:00 21,8 C 22,2 C 73 % 1015,6 hPa 0,0 l/m 2 min 0 min 3,4 UV-I 749 W/m 21,3 km/h (4 Bft)
04.08.2014 12:02 21,9 C 22,8 C 75 % 1015,7 hPa 0,0 l/m 2 min 0 min 3,9 UV-I 755 W/m 21,3 km/h (4 Bft)
04.08.2014 12:06 21,7 C 23,3 C 71 % 1015,7 hPa 0,0 l/m 2 min 0 min 3,9 UV-I 737 W/m 24,7 km/h (4 Bft)
04.08.2014 12:08 21,7 C 22,8 C 72 % 1015,8 hPa 0,0 l/m 2 min 0 min 3,6 UV-I 719 W/m 21,3 km/h (4 Bft)
04.08.2014 12:10 21,7 C 22,8 C 73 % 1015,8 hPa 0,0 l/m 2 min 0 min 3,6 UV-I 530 W/m 14,2 km/h (3 Bft)
04.08.2014 12:12 22,0 C 22,8 C 75 % 1015,8 hPa 0,0 l/m 2 min 0 min 4,3 UV-I 878 W/m 10,7 km/h (2 Bft)
04.08.2014 12:14 22,3 C 22,8 C 72 % 1015,8 hPa 0,0 l/m 2 min 0 min 3,6 UV-I 843 W/m 3,5 km/h (1 Bft)
04.08.2014 12:16 22,3 C 22,8 C 73 % 1015,8 hPa 0,0 l/m 2 min 0 min 3,1 UV-I 500 W/m 17,7 km/h (3 Bft)
04.08.2014 12:18 22,3 C 22,8 C 73 % 1015,8 hPa 0,0 l/m 2 min 0 min 2,8 UV-I 444 W/m 21,3 km/h (4 Bft)
04.08.2014 12:20 22,1 C 22,8 C 71 % 1015,7 hPa 0,0 l/m 2 min 0 min 3,6 UV-I 488 W/m 14,2 km/h (3 Bft)
04.08.2014 12:22 22,2 C 23,3 C 73 % 1015,8 hPa 0,0 l/m 2 min 0 min 3,9 UV-I 520 W/m 21,3 km/h (4 Bft)
04.08.2014 12:24 22,4 C 22,8 C 72 % 1015,8 hPa 0,0 l/m 2 min 0 min 2,8 UV-I 424 W/m 17,7 km/h (3 Bft)
04.08.2014 12:26 22,2 C 22,8 C 71 % 1015,8 hPa 0,0 l/m 2 min 0 min 3,0 UV-I 409 W/m 7,1 km/h (2 Bft)
04.08.2014 12:28 22,2 C 22,8 C 70 % 1015,8 hPa 0,0 l/m 2 min 0 min 2,8 UV-I 446 W/m 21,3 km/h (4 Bft)
04.08.2014 12:30 22,0 C 22,2 C 70 % 1015,8 hPa 0,0 l/m 2 min 0 min 2,9 UV-I 461 W/m 21,3 km/h (4 Bft)
04.08.2014 12:32 21,9 C 22,2 C 71 % 1015,7 hPa 0,0 l/m 2 min 0 min 2,7 UV-I 393 W/m 17,7 km/h (3 Bft)
04.08.2014 12:34 21,9 C 22,2 C 73 % 1015,7 hPa 0,0 l/m 2 min 0 min 3,1 UV-I 510 W/m 7,1 km/h (2 Bft)
04.08.2014 12:36 22,2 C 23,9 C 75 % 1015,7 hPa 0,0 l/m 2 min 0 min 3,6 UV-I 674 W/m 0,0 km/h (0 Bft)
04.08.2014 12:38 22,7 C 25,0 C 76 % 1015,7 hPa 0,0 l/m 2 min 0 min 4,2 UV-I 858 W/m 10,7 km/h (2 Bft)
04.08.2014 12:40 23,1 C 25,6 C 73 % 1015,7 hPa 0,0 l/m 2 min 0 min 4,5 UV-I 887 W/m 21,3 km/h (4 Bft)
04.08.2014 12:42 23,3 C 25,6 C 71 % 1015,7 hPa 0,0 l/m 2 min 0 min 4,4 UV-I 850 W/m 28,2 km/h (4 Bft)
04.08.2014 12:44 23,3 C 24,4 C 69 % 1015,7 hPa 0,0 l/m 2 min 0 min 3,6 UV-I 536 W/m 24,7 km/h (4 Bft)
04.08.2014 12:46 23,0 C 23,3 C 69 % 1015,7 hPa 0,0 l/m 2 min 0 min 3,3 UV-I 497 W/m 21,3 km/h (4 Bft)
04.08.2014 12:48 22,7 C 23,9 C 70 % 1015,8 hPa 0,0 l/m 2 min 0 min 4,2 UV-I 606 W/m 10,7 km/h (2 Bft)
04.08.2014 12:50 22,7 C 23,9 C 70 % 1015,7 hPa 0,0 l/m 2 min 0 min 4,5 UV-I 802 W/m 17,7 km/h (3 Bft)
04.08.2014 12:52 22,7 C 23,9 C 71 % 1015,7 hPa 0,0 l/m 2 min 0 min 3,3 UV-I 805 W/m 10,7 km/h (2 Bft)
04.08.2014 12:54 23,0 C 23,9 C 72 % 1015,7 hPa 0,0 l/m 2 min 0 min 3,3 UV-I 812 W/m 3,5 km/h (1 Bft)
04.08.2014 12:56 22,9 C 23,3 C 66 % 1015,7 hPa 0,0 l/m 2 min 0 min 3,8 UV-I 837 W/m 24,7 km/h (4 Bft)
04.08.2014 12:58 22,9 C 22,8 C 69 % 1015,7 hPa 0,0 l/m 2 min 0 min 3,3 UV-I 605 W/m 21,3 km/h (4 Bft)
04.08.2014 13:00 22,7 C 22,8 C 69 % 1015,7 hPa 0,0 l/m 0 min 0 min 2,9 UV-I 285 W/m 17,7 km/h (3 Bft)
04.08.2014 13:02 22,6 C 22,8 C 69 % 1015,7 hPa 0,0 l/m 0 min 0 min 4,0 UV-I 309 W/m 14,2 km/h (3 Bft)
04.08.2014 13:04 22,6 C 22,8 C 67 % 1015,8 hPa 0,0 l/m 0 min 0 min 4,0 UV-I 309 W/m 10,7 km/h (2 Bft)
04.08.2014 13:06 22,8 C 22,8 C 70 % 1015,7 hPa 0,0 l/m 0 min 0 min 4,7 UV-I 309 W/m 10,7 km/h (2 Bft)
04.08.2014 13:08 22,9 C 23,3 C 67 % 1015,8 hPa 0,0 l/m 2 min 0 min 4,5 UV-I 444 W/m 3,5 km/h (1 Bft)
04.08.2014 13:10 22,9 C 23,3 C 63 % 1015,7 hPa 0,0 l/m 2 min 0 min 5,0 UV-I 860 W/m 17,7 km/h (3 Bft)
04.08.2014 13:12 23,1 C 23,3 C 67 % 1015,7 hPa 0,0 l/m 2 min 0 min 4,8 UV-I 851 W/m 24,7 km/h (4 Bft)
04.08.2014 13:14 23,1 C 23,3 C 68 % 1015,6 hPa 0,0 l/m 2 min 0 min 4,5 UV-I 793 W/m 17,7 km/h (3 Bft)
04.08.2014 13:16 23,1 C 23,3 C 64 % 1015,7 hPa 0,0 l/m 2 min 0 min 4,8 UV-I 782 W/m 10,7 km/h (2 Bft)
04.08.2014 13:18 23,3 C 23,3 C 63 % 1015,6 hPa 0,0 l/m 2 min 0 min 4,9 UV-I 807 W/m 3,5 km/h (1 Bft)
04.08.2014 13:20 23,2 C 23,3 C 63 % 1015,5 hPa 0,0 l/m 2 min 0 min 4,8 UV-I 798 W/m 21,3 km/h (4 Bft)
04.08.2014 13:22 23,4 C 23,3 C 64 % 1015,6 hPa 0,0 l/m 2 min 0 min 4,8 UV-I 786 W/m 17,7 km/h (3 Bft)
04.08.2014 13:24 23,2 C 22,8 C 59 % 1015,6 hPa 0,0 l/m 2 min 0 min 4,9 UV-I 802 W/m 14,2 km/h (3 Bft)
04.08.2014 13:26 23,3 C 22,8 C 63 % 1015,6 hPa 0,0 l/m 2 min 0 min 4,9 UV-I 826 W/m 28,2 km/h (4 Bft)
04.08.2014 13:28 23,2 C 22,2 C 60 % 1015,6 hPa 0,0 l/m 2 min 0 min 3,4 UV-I 569 W/m 10,7 km/h (2 Bft)
04.08.2014 13:30 22,8 C 22,2 C 61 % 1015,5 hPa 0,0 l/m 0 min 0 min 3,1 UV-I 254 W/m 28,2 km/h (4 Bft)
04.08.2014 13:32 22,7 C 21,7 C 60 % 1015,6 hPa 0,0 l/m 2 min 0 min 4,6 UV-I 415 W/m 28,2 km/h (4 Bft)
04.08.2014 13:34 22,6 C 21,7 C 60 % 1015,5 hPa 0,0 l/m 2 min 0 min 4,9 UV-I 773 W/m 21,3 km/h (4 Bft)
04.08.2014 13:36 22,6 C 21,7 C 60 % 1015,5 hPa 0,0 l/m 2 min 0 min 4,9 UV-I 775 W/m 21,3 km/h (4 Bft)
04.08.2014 13:38 22,8 C 22,2 C 64 % 1015,5 hPa 0,0 l/m 2 min 0 min 4,9 UV-I 774 W/m 35,4 km/h (5 Bft)
04.08.2014 13:40 23,2 C 22,2 C 61 % 1015,5 hPa 0,0 l/m 2 min 0 min 4,9 UV-I 770 W/m 28,2 km/h (4 Bft)
04.08.2014 13:42 23,4 C 22,8 C 62 % 1015,5 hPa 0,0 l/m 2 min 0 min 4,9 UV-I 773 W/m 24,7 km/h (4 Bft)
04.08.2014 13:44 23,5 C 22,8 C 60 % 1015,5 hPa 0,0 l/m 2 min 0 min 4,9 UV-I 773 W/m 17,7 km/h (3 Bft)
04.08.2014 13:46 23,3 C 22,2 C 61 % 1015,5 hPa 0,0 l/m 2 min 0 min 4,9 UV-I 757 W/m 21,3 km/h (4 Bft)
04.08.2014 13:48 23,4 C 22,8 C 60 % 1015,5 hPa 0,0 l/m 2 min 0 min 4,8 UV-I 759 W/m 21,3 km/h (4 Bft)
04.08.2014 13:50 23,2 C 22,2 C 58 % 1015,4 hPa 0,0 l/m 2 min 0 min 4,8 UV-I 760 W/m 0,0 km/h (0 Bft)
04.08.2014 13:52 23,1 C 22,2 C 59 % 1015,5 hPa 0,0 l/m 2 min 0 min 4,9 UV-I 761 W/m 21,3 km/h (4 Bft)
04.08.2014 13:54 23,0 C 22,2 C 62 % 1015,5 hPa 0,0 l/m 2 min 0 min 4,8 UV-I 756 W/m 28,2 km/h (4 Bft)
04.08.2014 13:56 22,9 C 21,7 C 59 % 1015,5 hPa 0,0 l/m 2 min 0 min 4,8 UV-I 756 W/m 24,7 km/h (4 Bft)
04.08.2014 13:58 22,9 C 21,7 C 60 % 1015,5 hPa 0,0 l/m 2 min 0 min 4,8 UV-I 760 W/m 24,7 km/h (4 Bft)
04.08.2014 14:00 23,0 C 22,2 C 64 % 1015,5 hPa 0,0 l/m 2 min 0 min 4,7 UV-I 744 W/m 24,7 km/h (4 Bft)
04.08.2014 14:02 23,0 C 22,2 C 60 % 1015,5 hPa 0,0 l/m 2 min 0 min 4,7 UV-I 746 W/m 21,3 km/h (4 Bft)
04.08.2014 14:04 23,2 C 22,2 C 64 % 1015,5 hPa 0,0 l/m 2 min 0 min 4,8 UV-I 758 W/m 24,7 km/h (4 Bft)
04.08.2014 14:06 23,2 C 22,2 C 59 % 1015,5 hPa 0,0 l/m 2 min 0 min 4,7 UV-I 753 W/m 28,2 km/h (4 Bft)
04.08.2014 14:08 23,2 C 22,2 C 64 % 1015,5 hPa 0,0 l/m 2 min 0 min 4,7 UV-I 752 W/m 24,7 km/h (4 Bft)
04.08.2014 14:10 23,6 C 22,8 C 61 % 1015,5 hPa 0,0 l/m 2 min 0 min 4,7 UV-I 752 W/m 21,3 km/h (4 Bft)
04.08.2014 14:12 23,9 C 22,8 C 63 % 1015,5 hPa 0,0 l/m 2 min 0 min 4,7 UV-I 752 W/m 21,3 km/h (4 Bft)
04.08.2014 14:14 23,9 C 22,8 C 61 % 1015,4 hPa 0,0 l/m 2 min 0 min 4,7 UV-I 754 W/m 21,3 km/h (4 Bft)
04.08.2014 14:16 23,9 C 22,8 C 59 % 1015,5 hPa 0,0 l/m 2 min 0 min 4,7 UV-I 758 W/m 21,3 km/h (4 Bft)
04.08.2014 14:18 23,9 C 22,8 C 58 % 1015,4 hPa 0,0 l/m 2 min 0 min 4,7 UV-I 763 W/m 24,7 km/h (4 Bft)
04.08.2014 14:20 24,2 C 22,8 C 62 % 1015,4 hPa 0,0 l/m 2 min 0 min 4,7 UV-I 766 W/m 17,7 km/h (3 Bft)
04.08.2014 14:22 24,3 C 22,8 C 56 % 1015,4 hPa 0,0 l/m 2 min 0 min 4,7 UV-I 776 W/m 14,2 km/h (3 Bft)
04.08.2014 14:24 24,2 C 22,8 C 58 % 1015,4 hPa 0,0 l/m 2 min 0 min 4,7 UV-I 806 W/m 24,7 km/h (4 Bft)
04.08.2014 14:26 24,0 C 22,8 C 56 % 1015,4 hPa 0,0 l/m 2 min 0 min 4,1 UV-I 833 W/m 0,0 km/h (0 Bft)
04.08.2014 14:28 23,8 C 22,8 C 55 % 1015,4 hPa 0,0 l/m 2 min 0 min 3,3 UV-I 681 W/m 21,3 km/h (4 Bft)
04.08.2014 14:30 23,6 C 22,8 C 58 % 1015,4 hPa 0,0 l/m 2 min 0 min 3,7 UV-I 414 W/m 28,2 km/h (4 Bft)
04.08.2014 14:32 23,5 C 22,8 C 57 % 1015,4 hPa 0,0 l/m 2 min 0 min 4,0 UV-I 459 W/m 28,2 km/h (4 Bft)
04.08.2014 14:34 23,6 C 22,8 C 57 % 1015,4 hPa 0,0 l/m 2 min 0 min 4,2 UV-I 450 W/m 28,2 km/h (4 Bft)
04.08.2014 14:36 23,7 C 22,8 C 58 % 1015,4 hPa 0,0 l/m 2 min 0 min 4,4 UV-I 495 W/m 17,7 km/h (3 Bft)
04.08.2014 14:38 23,6 C 22,8 C 57 % 1015,4 hPa 0,0 l/m 2 min 0 min 4,6 UV-I 767 W/m 28,2 km/h (4 Bft)
04.08.2014 14:40 23,5 C 22,8 C 57 % 1015,4 hPa 0,0 l/m 2 min 0 min 4,5 UV-I 742 W/m 21,3 km/h (4 Bft)
04.08.2014 14:42 23,3 C 22,2 C 58 % 1015,4 hPa 0,0 l/m 2 min 0 min 4,4 UV-I 731 W/m 14,2 km/h (3 Bft)
04.08.2014 14:44 23,6 C 22,8 C 59 % 1015,4 hPa 0,0 l/m 2 min 0 min 4,4 UV-I 729 W/m 14,2 km/h (3 Bft)
04.08.2014 14:46 23,7 C 22,8 C 59 % 1015,4 hPa 0,0 l/m 2 min 0 min 4,4 UV-I 729 W/m 3,5 km/h (1 Bft)
04.08.2014 14:48 23,7 C 22,8 C 59 % 1015,4 hPa 0,0 l/m 2 min 0 min 4,4 UV-I 729 W/m 0,0 km/h (0 Bft)
04.08.2014 14:50 23,8 C 22,8 C 59 % 1015,4 hPa 0,0 l/m 2 min 0 min 4,3 UV-I 729 W/m 14,2 km/h (3 Bft)
04.08.2014 14:52 23,8 C 22,8 C 58 % 1015,4 hPa 0,0 l/m 2 min 0 min 4,3 UV-I 730 W/m 17,7 km/h (3 Bft)
04.08.2014 14:54 24,0 C 22,8 C 61 % 1015,4 hPa 0,0 l/m 2 min 0 min 4,3 UV-I 750 W/m 14,2 km/h (3 Bft)
04.08.2014 14:56 24,3 C 23,3 C 57 % 1015,4 hPa 0,0 l/m 2 min 0 min 4,3 UV-I 772 W/m 17,7 km/h (3 Bft)
04.08.2014 14:58 24,3 C 23,3 C 60 % 1015,5 hPa 0,0 l/m 2 min 0 min 4,0 UV-I 666 W/m 14,2 km/h (3 Bft)
04.08.2014 15:00 24,4 C 23,3 C 58 % 1015,5 hPa 0,0 l/m 2 min 0 min 3,5 UV-I 590 W/m 21,3 km/h (4 Bft)
04.08.2014 15:02 24,3 C 23,3 C 57 % 1015,5 hPa 0,0 l/m 2 min 0 min 2,8 UV-I 472 W/m 3,5 km/h (1 Bft)
04.08.2014 15:04 24,1 C 23,3 C 57 % 1015,5 hPa 0,0 l/m 2 min 0 min 2,7 UV-I 399 W/m 14,2 km/h (3 Bft)
04.08.2014 15:06 23,9 C 23,3 C 59 % 1015,6 hPa 0,0 l/m 2 min 0 min 2,7 UV-I 396 W/m 21,3 km/h (4 Bft)
04.08.2014 15:08 23,8 C 23,3 C 57 % 1015,5 hPa 0,0 l/m 0 min 0 min 2,4 UV-I 363 W/m 17,7 km/h (3 Bft)
04.08.2014 15:10 23,4 C 22,8 C 57 % 1015,5 hPa 0,0 l/m 0 min 0 min 2,4 UV-I 363 W/m 24,7 km/h (4 Bft)
04.08.2014 15:12 23,2 C 22,8 C 59 % 1015,5 hPa 0,0 l/m 2 min 0 min 2,4 UV-I 378 W/m 21,3 km/h (4 Bft)
04.08.2014 15:14 23,3 C 23,3 C 59 % 1015,5 hPa 0,0 l/m 2 min 0 min 2,4 UV-I 387 W/m 17,7 km/h (3 Bft)
04.08.2014 15:16 23,2 C 23,3 C 58 % 1015,6 hPa 0,0 l/m 2 min 0 min 2,8 UV-I 453 W/m 14,2 km/h (3 Bft)
04.08.2014 15:18 23,3 C 23,3 C 58 % 1015,6 hPa 0,0 l/m 2 min 0 min 3,5 UV-I 522 W/m 17,7 km/h (3 Bft)
04.08.2014 15:20 23,6 C 23,9 C 59 % 1015,6 hPa 0,0 l/m 2 min 0 min 4,1 UV-I 707 W/m 21,3 km/h (4 Bft)
04.08.2014 15:22 24,1 C 24,4 C 61 % 1015,5 hPa 0,0 l/m 2 min 0 min 4,2 UV-I 837 W/m 28,2 km/h (4 Bft)
04.08.2014 15:24 24,2 C 23,9 C 60 % 1015,6 hPa 0,0 l/m 2 min 0 min 3,8 UV-I 716 W/m 28,2 km/h (4 Bft)
04.08.2014 15:26 24,2 C 23,9 C 57 % 1015,6 hPa 0,0 l/m 2 min 0 min 3,8 UV-I 724 W/m 21,3 km/h (4 Bft)
04.08.2014 15:28 24,1 C 23,3 C 58 % 1015,6 hPa 0,0 l/m 2 min 0 min 3,6 UV-I 690 W/m 14,2 km/h (3 Bft)
04.08.2014 15:30 24,3 C 23,3 C 59 % 1015,5 hPa 0,0 l/m 2 min 0 min 3,5 UV-I 681 W/m 21,3 km/h (4 Bft)
04.08.2014 15:32 24,1 C 23,3 C 59 % 1015,6 hPa 0,0 l/m 2 min 0 min 3,1 UV-I 556 W/m 17,7 km/h (3 Bft)
04.08.2014 15:34 23,9 C 22,8 C 58 % 1015,6 hPa 0,0 l/m 2 min 0 min 2,8 UV-I 490 W/m 14,2 km/h (3 Bft)
04.08.2014 15:36 23,7 C 22,8 C 61 % 1015,6 hPa 0,0 l/m 2 min 0 min 2,8 UV-I 512 W/m 28,2 km/h (4 Bft)
04.08.2014 15:38 23,6 C 22,8 C 59 % 1015,6 hPa 0,0 l/m 2 min 0 min 2,6 UV-I 431 W/m 24,7 km/h (4 Bft)
04.08.2014 15:40 23,4 C 22,8 C 60 % 1015,6 hPa 0,0 l/m 2 min 0 min 2,4 UV-I 399 W/m 21,3 km/h (4 Bft)
04.08.2014 15:42 23,2 C 22,2 C 59 % 1015,6 hPa 0,0 l/m 2 min 0 min 2,6 UV-I 433 W/m 21,3 km/h (4 Bft)
04.08.2014 15:44 23,2 C 22,2 C 61 % 1015,6 hPa 0,0 l/m 2 min 0 min 2,6 UV-I 461 W/m 28,2 km/h (4 Bft)
04.08.2014 15:46 23,3 C 22,8 C 64 % 1015,6 hPa 0,0 l/m 2 min 0 min 2,5 UV-I 463 W/m 21,3 km/h (4 Bft)
04.08.2014 15:48 23,3 C 22,8 C 61 % 1015,6 hPa 0,0 l/m 2 min 0 min 2,5 UV-I 493 W/m 17,7 km/h (3 Bft)
04.08.2014 15:50 23,4 C 22,8 C 61 % 1015,6 hPa 0,0 l/m 2 min 0 min 2,9 UV-I 566 W/m 24,7 km/h (4 Bft)
04.08.2014 15:52 23,7 C 23,3 C 63 % 1015,6 hPa 0,0 l/m 2 min 0 min 2,8 UV-I 529 W/m 17,7 km/h (3 Bft)
04.08.2014 15:54 24,1 C 23,3 C 63 % 1015,6 hPa 0,0 l/m 2 min 0 min 2,8 UV-I 506 W/m 7,1 km/h (2 Bft)
04.08.2014 15:56 24,2 C 23,3 C 63 % 1015,7 hPa 0,0 l/m 2 min 0 min 2,5 UV-I 546 W/m 17,7 km/h (3 Bft)
04.08.2014 15:58 24,3 C 23,9 C 60 % 1015,7 hPa 0,0 l/m 2 min 0 min 3,0 UV-I 574 W/m 14,2 km/h (3 Bft)
04.08.2014 16:00 24,2 C 23,9 C 61 % 1015,7 hPa 0,0 l/m 2 min 0 min 3,0 UV-I 650 W/m 24,7 km/h (4 Bft)
04.08.2014 16:02 24,3 C 23,9 C 59 % 1015,8 hPa 0,0 l/m 2 min 0 min 2,9 UV-I 638 W/m 21,3 km/h (4 Bft)
04.08.2014 16:04 24,1 C 23,9 C 57 % 1015,7 hPa 0,0 l/m 2 min 0 min 3,0 UV-I 670 W/m 24,7 km/h (4 Bft)
04.08.2014 16:06 23,8 C 23,9 C 59 % 1015,8 hPa 0,0 l/m 2 min 0 min 3,0 UV-I 633 W/m 17,7 km/h (3 Bft)
04.08.2014 16:08 23,8 C 23,3 C 58 % 1015,8 hPa 0,0 l/m 2 min 0 min 2,4 UV-I 501 W/m 21,3 km/h (4 Bft)
04.08.2014 16:10 23,7 C 23,3 C 59 % 1015,8 hPa 0,0 l/m 2 min 0 min 2,4 UV-I 448 W/m 17,7 km/h (3 Bft)
04.08.2014 16:12 23,7 C 23,3 C 63 % 1015,8 hPa 0,0 l/m 2 min 0 min 2,2 UV-I 410 W/m 17,7 km/h (3 Bft)
04.08.2014 16:14 23,8 C 23,9 C 58 % 1015,8 hPa 0,0 l/m 2 min 0 min 2,7 UV-I 452 W/m 17,7 km/h (3 Bft)
04.08.2014 16:16 23,9 C 23,9 C 61 % 1015,8 hPa 0,0 l/m 2 min 0 min 2,9 UV-I 647 W/m 17,7 km/h (3 Bft)
04.08.2014 16:18 24,1 C 23,9 C 57 % 1015,7 hPa 0,0 l/m 2 min 0 min 2,1 UV-I 427 W/m 14,2 km/h (3 Bft)
04.08.2014 16:20 23,9 C 23,3 C 59 % 1015,8 hPa 0,0 l/m 0 min 0 min 1,9 UV-I 311 W/m 21,3 km/h (4 Bft)
04.08.2014 16:22 23,9 C 24,4 C 60 % 1015,8 hPa 0,0 l/m 2 min 0 min 2,5 UV-I 403 W/m 17,7 km/h (3 Bft)
04.08.2014 16:24 23,9 C 23,9 C 60 % 1015,8 hPa 0,0 l/m 2 min 0 min 2,2 UV-I 468 W/m 28,2 km/h (4 Bft)
04.08.2014 16:26 23,9 C 23,9 C 59 % 1015,8 hPa 0,0 l/m 2 min 0 min 1,9 UV-I 383 W/m 17,7 km/h (3 Bft)
04.08.2014 16:28 24,0 C 23,9 C 59 % 1015,8 hPa 0,0 l/m 2 min 0 min 2,1 UV-I 424 W/m 10,7 km/h (2 Bft)
04.08.2014 16:30 23,9 C 23,9 C 59 % 1015,8 hPa 0,0 l/m 2 min 0 min 1,9 UV-I 407 W/m 14,2 km/h (3 Bft)
04.08.2014 16:32 23,7 C 23,3 C 58 % 1015,8 hPa 0,0 l/m 0 min 0 min 1,7 UV-I 307 W/m 0,0 km/h (0 Bft)
04.08.2014 16:34 23,6 C 23,3 C 63 % 1015,8 hPa 0,0 l/m 2 min 0 min 1,7 UV-I 372 W/m 10,7 km/h (2 Bft)
04.08.2014 16:36 23,6 C 23,3 C 59 % 1015,8 hPa 0,0 l/m 2 min 0 min 1,8 UV-I 430 W/m 7,1 km/h (2 Bft)
04.08.2014 16:38 23,5 C 23,3 C 61 % 1015,8 hPa 0,0 l/m 2 min 0 min 2,0 UV-I 505 W/m 21,3 km/h (4 Bft)
04.08.2014 16:40 23,6 C 23,3 C 60 % 1015,7 hPa 0,0 l/m 2 min 0 min 2,0 UV-I 497 W/m 17,7 km/h (3 Bft)
04.08.2014 16:42 23,6 C 23,3 C 59 % 1015,7 hPa 0,0 l/m 2 min 0 min 2,0 UV-I 494 W/m 17,7 km/h (3 Bft)
04.08.2014 16:44 23,4 C 22,8 C 58 % 1015,7 hPa 0,0 l/m 2 min 0 min 1,7 UV-I 413 W/m 14,2 km/h (3 Bft)
04.08.2014 16:46 23,5 C 22,8 C 60 % 1015,7 hPa 0,0 l/m 2 min 0 min 1,6 UV-I 386 W/m 14,2 km/h (3 Bft)
04.08.2014 16:48 23,5 C 22,8 C 64 % 1015,7 hPa 0,0 l/m 2 min 0 min 1,4 UV-I 321 W/m 0,0 km/h (0 Bft)
04.08.2014 16:50 23,4 C 22,8 C 61 % 1015,7 hPa 0,0 l/m 2 min 0 min 1,4 UV-I 327 W/m 0,0 km/h (0 Bft)
04.08.2014 16:52 23,3 C 22,8 C 60 % 1015,7 hPa 0,0 l/m 0 min 0 min 1,3 UV-I 288 W/m 0,0 km/h (0 Bft)
04.08.2014 16:54 23,3 C 22,8 C 65 % 1015,7 hPa 0,0 l/m 0 min 0 min 1,3 UV-I 290 W/m 14,2 km/h (3 Bft)
04.08.2014 16:56 23,2 C 22,8 C 58 % 1015,7 hPa 0,0 l/m 0 min 0 min 1,2 UV-I 293 W/m 14,2 km/h (3 Bft)
04.08.2014 16:58 23,2 C 22,8 C 59 % 1015,7 hPa 0,0 l/m 0 min 0 min 1,2 UV-I 288 W/m 21,3 km/h (4 Bft)
04.08.2014 17:00 23,1 C 22,8 C 61 % 1015,8 hPa 0,0 l/m 2 min 0 min 1,2 UV-I 304 W/m 17,7 km/h (3 Bft)
04.08.2014 17:02 23,2 C 22,8 C 59 % 1015,8 hPa 0,0 l/m 2 min 0 min 1,4 UV-I 405 W/m 17,7 km/h (3 Bft)
04.08.2014 17:04 23,4 C 23,3 C 60 % 1015,8 hPa 0,0 l/m 2 min 0 min 1,6 UV-I 509 W/m 17,7 km/h (3 Bft)
04.08.2014 17:06 23,7 C 23,3 C 59 % 1015,7 hPa 0,0 l/m 2 min 0 min 1,7 UV-I 518 W/m 24,7 km/h (4 Bft)
04.08.2014 17:08 23,7 C 23,3 C 58 % 1015,8 hPa 0,0 l/m 2 min 0 min 1,5 UV-I 450 W/m 24,7 km/h (4 Bft)
04.08.2014 17:10 23,7 C 23,3 C 57 % 1015,8 hPa 0,0 l/m 2 min 0 min 1,3 UV-I 342 W/m 24,7 km/h (4 Bft)
04.08.2014 17:12 23,5 C 23,3 C 58 % 1015,8 hPa 0,0 l/m 2 min 0 min 1,3 UV-I 329 W/m 17,7 km/h (3 Bft)
04.08.2014 17:14 23,3 C 22,8 C 58 % 1015,7 hPa 0,0 l/m 2 min 0 min 1,2 UV-I 334 W/m 17,7 km/h (3 Bft)
04.08.2014 17:16 23,2 C 22,8 C 58 % 1015,8 hPa 0,0 l/m 2 min 0 min 1,2 UV-I 327 W/m 14,2 km/h (3 Bft)
04.08.2014 17:18 23,1 C 22,8 C 59 % 1015,7 hPa 0,0 l/m 2 min 0 min 1,2 UV-I 385 W/m 21,3 km/h (4 Bft)
04.08.2014 17:20 23,1 C 22,8 C 59 % 1015,8 hPa 0,0 l/m 2 min 0 min 1,3 UV-I 422 W/m 14,2 km/h (3 Bft)
04.08.2014 17:22 23,1 C 22,8 C 58 % 1015,8 hPa 0,0 l/m 2 min 0 min 1,3 UV-I 419 W/m 14,2 km/h (3 Bft)
04.08.2014 17:24 23,0 C 22,8 C 57 % 1015,8 hPa 0,0 l/m 2 min 0 min 1,3 UV-I 426 W/m 17,7 km/h (3 Bft)
04.08.2014 17:26 23,1 C 22,8 C 58 % 1015,7 hPa 0,0 l/m 2 min 0 min 1,1 UV-I 360 W/m 21,3 km/h (4 Bft)
04.08.2014 17:28 23,1 C 22,8 C 58 % 1015,6 hPa 0,0 l/m 2 min 0 min 1,0 UV-I 302 W/m 21,3 km/h (4 Bft)
04.08.2014 17:30 23,1 C 22,8 C 59 % 1015,6 hPa 0,0 l/m 2 min 0 min 1,0 UV-I 315 W/m 21,3 km/h (4 Bft)
04.08.2014 17:32 23,1 C 22,8 C 59 % 1015,5 hPa 0,0 l/m 2 min 0 min 0,9 UV-I 314 W/m 24,7 km/h (4 Bft)
04.08.2014 17:34 23,1 C 22,2 C 59 % 1015,6 hPa 0,0 l/m 2 min 0 min 0,9 UV-I 266 W/m 14,2 km/h (3 Bft)
04.08.2014 17:36 23,0 C 22,2 C 59 % 1015,6 hPa 0,0 l/m 0 min 0 min 0,8 UV-I 258 W/m 28,2 km/h (4 Bft)
04.08.2014 17:38 23,0 C 22,2 C 59 % 1015,6 hPa 0,0 l/m 2 min 0 min 0,8 UV-I 282 W/m 24,7 km/h (4 Bft)
04.08.2014 17:40 23,0 C 22,2 C 59 % 1015,5 hPa 0,0 l/m 2 min 0 min 0,7 UV-I 273 W/m 21,3 km/h (4 Bft)
04.08.2014 17:42 22,9 C 21,7 C 60 % 1015,5 hPa 0,0 l/m 0 min 0 min 0,7 UV-I 235 W/m 17,7 km/h (3 Bft)
04.08.2014 17:44 22,8 C 21,7 C 60 % 1015,5 hPa 0,0 l/m 0 min 0 min 0,7 UV-I 207 W/m 17,7 km/h (3 Bft)
04.08.2014 17:46 22,8 C 21,7 C 60 % 1015,5 hPa 0,0 l/m 0 min 0 min 0,7 UV-I 248 W/m 10,7 km/h (2 Bft)
04.08.2014 17:48 22,8 C 21,7 C 60 % 1015,5 hPa 0,0 l/m 2 min 0 min 0,7 UV-I 286 W/m 21,3 km/h (4 Bft)
04.08.2014 17:50 22,7 C 22,2 C 60 % 1015,5 hPa 0,0 l/m 2 min 0 min 0,7 UV-I 346 W/m 17,7 km/h (3 Bft)
04.08.2014 17:52 22,8 C 22,2 C 60 % 1015,5 hPa 0,0 l/m 2 min 0 min 0,7 UV-I 477 W/m 21,3 km/h (4 Bft)
04.08.2014 17:54 22,9 C 22,2 C 61 % 1015,5 hPa 0,0 l/m 2 min 0 min 0,7 UV-I 458 W/m 21,3 km/h (4 Bft)
04.08.2014 17:56 23,2 C 22,8 C 63 % 1015,5 hPa 0,0 l/m 2 min 0 min 0,7 UV-I 444 W/m 17,7 km/h (3 Bft)
04.08.2014 17:58 23,4 C 22,8 C 60 % 1015,5 hPa 0,0 l/m 2 min 0 min 0,7 UV-I 421 W/m 21,3 km/h (4 Bft)
04.08.2014 18:00 23,4 C 22,2 C 60 % 1015,5 hPa 0,0 l/m 2 min 0 min 0,6 UV-I 402 W/m 21,3 km/h (4 Bft)
04.08.2014 18:02 23,4 C 22,2 C 60 % 1015,5 hPa 0,0 l/m 2 min 0 min 0,6 UV-I 391 W/m 21,3 km/h (4 Bft)
04.08.2014 18:06 23,2 C 21,7 C 58 % 1015,5 hPa 0,0 l/m 2 min 0 min 0,5 UV-I 381 W/m 21,3 km/h (4 Bft)
04.08.2014 18:08 23,2 C 21,7 C 57 % 1015,5 hPa 0,0 l/m 2 min 0 min 0,5 UV-I 382 W/m 24,7 km/h (4 Bft)
04.08.2014 18:10 23,2 C 21,7 C 57 % 1015,5 hPa 0,0 l/m 2 min 0 min 0,5 UV-I 384 W/m 28,2 km/h (4 Bft)
04.08.2014 18:12 23,3 C 21,7 C 60 % 1015,5 hPa 0,0 l/m 2 min 0 min 0,5 UV-I 380 W/m 17,7 km/h (3 Bft)
04.08.2014 18:14 23,3 C 21,7 C 58 % 1015,4 hPa 0,0 l/m 2 min 0 min 0,5 UV-I 381 W/m 14,2 km/h (3 Bft)
04.08.2014 18:16 23,3 C 21,7 C 57 % 1015,4 hPa 0,0 l/m 2 min 0 min 0,5 UV-I 375 W/m 24,7 km/h (4 Bft)
04.08.2014 18:18 23,2 C 21,7 C 57 % 1015,4 hPa 0,0 l/m 2 min 0 min 0,2 UV-I 367 W/m 14,2 km/h (3 Bft)
04.08.2014 18:20 23,2 C 21,7 C 58 % 1015,4 hPa 0,0 l/m 2 min 0 min 0,0 UV-I 366 W/m 14,2 km/h (3 Bft)
04.08.2014 18:22 23,2 C 21,7 C 59 % 1015,4 hPa 0,0 l/m 2 min 0 min 0,0 UV-I 362 W/m 17,7 km/h (3 Bft)
04.08.2014 18:24 23,3 C 22,2 C 59 % 1015,4 hPa 0,0 l/m 2 min 0 min 0,0 UV-I 354 W/m 28,2 km/h (4 Bft)
04.08.2014 18:26 23,3 C 21,7 C 59 % 1015,3 hPa 0,0 l/m 2 min 0 min 0,0 UV-I 346 W/m 17,7 km/h (3 Bft)
04.08.2014 18:28 23,3 C 22,2 C 59 % 1015,3 hPa 0,0 l/m 2 min 0 min 0,0 UV-I 340 W/m 24,7 km/h (4 Bft)
04.08.2014 18:30 23,3 C 21,7 C 59 % 1015,4 hPa 0,0 l/m 2 min 0 min 0,0 UV-I 330 W/m 21,3 km/h (4 Bft)
04.08.2014 18:32 23,2 C 22,2 C 60 % 1015,4 hPa 0,0 l/m 2 min 0 min 0,0 UV-I 321 W/m 17,7 km/h (3 Bft)
04.08.2014 18:34 23,2 C 21,7 C 61 % 1015,5 hPa 0,0 l/m 2 min 0 min 0,0 UV-I 299 W/m 21,3 km/h (4 Bft)
04.08.2014 18:36 23,2 C 21,7 C 61 % 1015,5 hPa 0,0 l/m 2 min 0 min 0,0 UV-I 286 W/m 14,2 km/h (3 Bft)
04.08.2014 18:38 23,2 C 21,7 C 61 % 1015,5 hPa 0,0 l/m 2 min 0 min 0,0 UV-I 274 W/m 0,0 km/h (0 Bft)
04.08.2014 18:40 23,1 C 21,1 C 60 % 1015,6 hPa 0,0 l/m 2 min 0 min 0,0 UV-I 269 W/m 17,7 km/h (3 Bft)
04.08.2014 18:42 23,1 C 21,1 C 64 % 1015,6 hPa 0,0 l/m 0 min 0 min 0,0 UV-I 165 W/m 10,7 km/h (2 Bft)
04.08.2014 18:44 23,1 C 21,1 C 63 % 1015,6 hPa 0,0 l/m 0 min 0 min 0,0 UV-I 109 W/m 28,2 km/h (4 Bft)
04.08.2014 18:46 22,9 C 21,1 C 64 % 1015,6 hPa 0,0 l/m 0 min 0 min 0,0 UV-I 123 W/m 17,7 km/h (3 Bft)
04.08.2014 18:48 22,9 C 21,1 C 64 % 1015,6 hPa 0,0 l/m 2 min 0 min 0,0 UV-I 196 W/m 17,7 km/h (3 Bft)
04.08.2014 18:50 22,8 C 21,1 C 63 % 1015,5 hPa 0,0 l/m 2 min 0 min 0,0 UV-I 183 W/m 24,7 km/h (4 Bft)
04.08.2014 18:52 22,8 C 21,1 C 63 % 1015,6 hPa 0,0 l/m 0 min 0 min 0,0 UV-I 133 W/m 21,3 km/h (4 Bft)
04.08.2014 18:54 22,8 C 21,1 C 63 % 1015,6 hPa 0,0 l/m 0 min 0 min 0,0 UV-I 76 W/m 24,7 km/h (4 Bft)
04.08.2014 18:56 22,6 C 21,1 C 63 % 1015,5 hPa 0,0 l/m 0 min 0 min 0,0 UV-I 68 W/m 17,7 km/h (3 Bft)
04.08.2014 18:58 22,5 C 21,1 C 63 % 1015,6 hPa 0,0 l/m 0 min 0 min 0,0 UV-I 62 W/m 17,7 km/h (3 Bft)
04.08.2014 19:00 22,4 C 20,6 C 64 % 1015,6 hPa 0,0 l/m 0 min 0 min 0,0 UV-I 59 W/m 14,2 km/h (3 Bft)
04.08.2014 19:02 22,4 C 20,6 C 65 % 1015,7 hPa 0,0 l/m 0 min 0 min 0,0 UV-I 57 W/m 14,2 km/h (3 Bft)
04.08.2014 19:04 22,3 C 20,6 C 65 % 1015,8 hPa 0,0 l/m 0 min 0 min 0,0 UV-I 55 W/m 10,7 km/h (2 Bft)
04.08.2014 19:06 22,2 C 20,6 C 64 % 1015,7 hPa 0,0 l/m 0 min 0 min 0,0 UV-I 57 W/m 10,7 km/h (2 Bft)
04.08.2014 19:08 22,2 C 21,1 C 65 % 1015,7 hPa 0,0 l/m 0 min 0 min 0,0 UV-I 56 W/m 7,1 km/h (2 Bft)
04.08.2014 19:10 22,2 C 21,1 C 65 % 1015,7 hPa 0,0 l/m 0 min 0 min 0,0 UV-I 56 W/m 0,0 km/h (0 Bft)
04.08.2014 19:12 22,2 C 21,1 C 65 % 1015,6 hPa 0,0 l/m 0 min 0 min 0,0 UV-I 108 W/m 0,0 km/h (0 Bft)
04.08.2014 19:14 22,3 C 21,1 C 65 % 1015,7 hPa 0,0 l/m 0 min 0 min 0,0 UV-I 87 W/m 3,5 km/h (1 Bft)
04.08.2014 19:16 22,3 C 21,1 C 65 % 1015,7 hPa 0,0 l/m 0 min 0 min 0,0 UV-I 93 W/m 0,0 km/h (0 Bft)
04.08.2014 19:18 22,3 C 21,1 C 65 % 1015,7 hPa 0,0 l/m 0 min 0 min 0,0 UV-I 104 W/m 0,0 km/h (0 Bft)
04.08.2014 19:20 22,3 C 20,6 C 66 % 1015,7 hPa 0,0 l/m 2 min 0 min 0,0 UV-I 139 W/m 0,0 km/h (0 Bft)
04.08.2014 19:22 22,4 C 21,1 C 65 % 1015,6 hPa 0,0 l/m 2 min 0 min 0,0 UV-I 135 W/m 14,2 km/h (3 Bft)
04.08.2014 19:24 22,4 C 21,1 C 66 % 1015,7 hPa 0,0 l/m 0 min 0 min 0,0 UV-I 122 W/m 10,7 km/h (2 Bft)
04.08.2014 19:26 22,5 C 21,1 C 66 % 1015,7 hPa 0,0 l/m 0 min 0 min 0,0 UV-I 116 W/m 17,7 km/h (3 Bft)
04.08.2014 19:28 22,5 C 21,1 C 66 % 1015,7 hPa 0,0 l/m 0 min 0 min 0,0 UV-I 81 W/m 24,7 km/h (4 Bft)
04.08.2014 19:30 22,5 C 21,1 C 68 % 1015,7 hPa 0,0 l/m 0 min 0 min 0,0 UV-I 71 W/m 17,7 km/h (3 Bft)
04.08.2014 19:32 22,4 C 21,1 C 68 % 1015,7 hPa 0,0 l/m 0 min 0 min 0,0 UV-I 71 W/m 17,7 km/h (3 Bft)
04.08.2014 19:34 22,4 C 21,1 C 67 % 1015,7 hPa 0,0 l/m 0 min 0 min 0,0 UV-I 70 W/m 24,7 km/h (4 Bft)
04.08.2014 19:36 22,4 C 20,6 C 68 % 1015,7 hPa 0,0 l/m 0 min 0 min 0,0 UV-I 72 W/m 0,0 km/h (0 Bft)
04.08.2014 19:38 22,3 C 20,6 C 68 % 1015,7 hPa 0,0 l/m 0 min 0 min 0,0 UV-I 75 W/m 21,3 km/h (4 Bft)
04.08.2014 19:40 22,3 C 20,6 C 68 % 1015,8 hPa 0,0 l/m 0 min 0 min 0,0 UV-I 79 W/m 21,3 km/h (4 Bft)
04.08.2014 19:42 22,2 C 20,6 C 68 % 1015,8 hPa 0,0 l/m 0 min 0 min 0,0 UV-I 83 W/m 21,3 km/h (4 Bft)
04.08.2014 19:44 22,2 C 21,1 C 68 % 1015,9 hPa 0,0 l/m 0 min 0 min 0,0 UV-I 84 W/m 14,2 km/h (3 Bft)
04.08.2014 19:46 22,2 C 21,1 C 68 % 1015,8 hPa 0,0 l/m 0 min 0 min 0,0 UV-I 84 W/m 14,2 km/h (3 Bft)
04.08.2014 19:48 22,2 C 21,1 C 68 % 1015,9 hPa 0,0 l/m 0 min 0 min 0,0 UV-I 83 W/m 21,3 km/h (4 Bft)
04.08.2014 19:50 22,2 C 21,1 C 67 % 1015,8 hPa 0,0 l/m 0 min 0 min 0,0 UV-I 86 W/m 21,3 km/h (4 Bft)
04.08.2014 19:52 22,2 C 21,1 C 68 % 1015,8 hPa 0,0 l/m 0 min 0 min 0,0 UV-I 84 W/m 17,7 km/h (3 Bft)
04.08.2014 19:54 22,2 C 21,1 C 67 % 1015,8 hPa 0,0 l/m 0 min 0 min 0,0 UV-I 83 W/m 14,2 km/h (3 Bft)
04.08.2014 19:56 22,2 C 21,1 C 68 % 1015,8 hPa 0,0 l/m 0 min 0 min 0,0 UV-I 83 W/m 7,1 km/h (2 Bft)
04.08.2014 19:58 22,2 C 21,1 C 68 % 1015,9 hPa 0,0 l/m 0 min 0 min 0,0 UV-I 80 W/m 10,7 km/h (2 Bft)
04.08.2014 20:00 22,2 C 21,1 C 69 % 1015,8 hPa 0,0 l/m 0 min 0 min 0,0 UV-I 75 W/m 14,2 km/h (3 Bft)
04.08.2014 20:02 22,1 C 21,1 C 69 % 1015,9 hPa 0,0 l/m 0 min 0 min 0,0 UV-I 71 W/m 10,7 km/h (2 Bft)
04.08.2014 20:04 22,1 C 21,1 C 68 % 1015,9 hPa 0,0 l/m 0 min 0 min 0,0 UV-I 68 W/m 14,2 km/h (3 Bft)
04.08.2014 20:06 22,1 C 20,6 C 68 % 1015,9 hPa 0,0 l/m 0 min 0 min 0,0 UV-I 66 W/m 14,2 km/h (3 Bft)
04.08.2014 20:08 22,0 C 20,6 C 67 % 1015,9 hPa 0,0 l/m 0 min 0 min 0,0 UV-I 62 W/m 0,0 km/h (0 Bft)
04.08.2014 20:10 22,0 C 20,6 C 69 % 1015,9 hPa 0,0 l/m 0 min 0 min 0,0 UV-I 54 W/m 3,5 km/h (1 Bft)
04.08.2014 20:12 21,9 C 20,6 C 69 % 1016,0 hPa 0,0 l/m 0 min 0 min 0,0 UV-I 45 W/m 14,2 km/h (3 Bft)
04.08.2014 20:14 21,9 C 20,6 C 70 % 1016,0 hPa 0,0 l/m 0 min 0 min 0,0 UV-I 39 W/m 10,7 km/h (2 Bft)
04.08.2014 20:16 21,9 C 20,6 C 70 % 1016,0 hPa 0,0 l/m 0 min 0 min 0,0 UV-I 36 W/m 0,0 km/h (0 Bft)
04.08.2014 20:18 21,8 C 20,0 C 69 % 1016,0 hPa 0,0 l/m 0 min 0 min 0,0 UV-I 35 W/m 0,0 km/h (0 Bft)
04.08.2014 20:20 21,8 C 20,0 C 70 % 1016,0 hPa 0,0 l/m 0 min 0 min 0,0 UV-I 35 W/m 0,0 km/h (0 Bft)
04.08.2014 20:22 21,8 C 20,0 C 69 % 1016,1 hPa 0,0 l/m 0 min 0 min 0,0 UV-I 34 W/m 0,0 km/h (0 Bft)
04.08.2014 20:24 21,8 C 20,0 C 70 % 1016,1 hPa 0,0 l/m 0 min 0 min 0,0 UV-I 33 W/m 0,0 km/h (0 Bft)
04.08.2014 20:26 21,7 C 20,0 C 69 % 1016,1 hPa 0,0 l/m 0 min 0 min 0,0 UV-I 32 W/m 0,0 km/h (0 Bft)
04.08.2014 20:28 21,7 C 20,0 C 68 % 1016,1 hPa 0,0 l/m 0 min 0 min 0,0 UV-I 31 W/m 0,0 km/h (0 Bft)
04.08.2014 20:30 21,7 C 20,0 C 69 % 1016,1 hPa 0,0 l/m 0 min 0 min 0,0 UV-I 30 W/m 0,0 km/h (0 Bft)
04.08.2014 20:32 21,7 C 20,0 C 69 % 1016,1 hPa 0,0 l/m 0 min 0 min 0,0 UV-I 29 W/m 0,0 km/h (0 Bft)
04.08.2014 20:34 21,7 C 20,0 C 70 % 1016,0 hPa 0,0 l/m 0 min 0 min 0,0 UV-I 27 W/m 0,0 km/h (0 Bft)
04.08.2014 20:36 21,6 C 20,0 C 70 % 1016,0 hPa 0,0 l/m 0 min 0 min 0,0 UV-I 28 W/m 0,0 km/h (0 Bft)
04.08.2014 20:38 21,6 C 20,0 C 70 % 1016,1 hPa 0,0 l/m 0 min 0 min 0,0 UV-I 28 W/m 14,2 km/h (3 Bft)
04.08.2014 20:40 21,5 C 20,0 C 69 % 1016,1 hPa 0,0 l/m 0 min 0 min 0,0 UV-I 30 W/m 10,7 km/h (2 Bft)
04.08.2014 20:42 21,5 C 20,0 C 69 % 1016,2 hPa 0,0 l/m 0 min 0 min 0,0 UV-I 30 W/m 7,1 km/h (2 Bft)
04.08.2014 20:44 21,4 C 20,0 C 69 % 1016,2 hPa 0,0 l/m 0 min 0 min 0,0 UV-I 30 W/m 0,0 km/h (0 Bft)
04.08.2014 20:46 21,4 C 20,0 C 70 % 1016,1 hPa 0,0 l/m 2 min 0 min 0,0 UV-I 30 W/m 0,0 km/h (0 Bft)
04.08.2014 20:48 21,4 C 20,0 C 69 % 1016,1 hPa 0,0 l/m 2 min 0 min 0,0 UV-I 31 W/m 0,0 km/h (0 Bft)
04.08.2014 20:50 21,4 C 20,0 C 69 % 1016,2 hPa 0,0 l/m 2 min 0 min 0,0 UV-I 32 W/m 0,0 km/h (0 Bft)
04.08.2014 20:52 21,3 C 20,0 C 69 % 1016,2 hPa 0,0 l/m 2 min 0 min 0,0 UV-I 29 W/m 0,0 km/h (0 Bft)
04.08.2014 20:54 21,3 C 19,4 C 69 % 1016,3 hPa 0,0 l/m 2 min 0 min 0,0 UV-I 28 W/m 0,0 km/h (0 Bft)
04.08.2014 20:56 21,3 C 19,4 C 68 % 1016,3 hPa 0,0 l/m 2 min 0 min 0,0 UV-I 26 W/m 0,0 km/h (0 Bft)
04.08.2014 20:58 21,3 C 19,4 C 70 % 1016,3 hPa 0,0 l/m 2 min 0 min 0,0 UV-I 24 W/m 0,0 km/h (0 Bft)
04.08.2014 21:00 21,2 C 19,4 C 70 % 1016,3 hPa 0,0 l/m 2 min 0 min 0,0 UV-I 22 W/m 0,0 km/h (0 Bft)
04.08.2014 21:02 21,2 C 19,4 C 70 % 1016,4 hPa 0,0 l/m 2 min 0 min 0,0 UV-I 19 W/m 0,0 km/h (0 Bft)
04.08.2014 21:04 21,2 C 19,4 C 70 % 1016,4 hPa 0,0 l/m 2 min 0 min 0,0 UV-I 17 W/m 0,0 km/h (0 Bft)
04.08.2014 21:06 21,2 C 18,9 C 70 % 1016,4 hPa 0,0 l/m 0 min 0 min 0,0 UV-I 15 W/m 0,0 km/h (0 Bft)
04.08.2014 21:08 21,1 C 18,9 C 70 % 1016,4 hPa 0,0 l/m 0 min 0 min 0,0 UV-I 14 W/m 0,0 km/h (0 Bft)
04.08.2014 21:10 21,1 C 18,9 C 71 % 1016,5 hPa 0,0 l/m 0 min 0 min 0,0 UV-I 12 W/m 0,0 km/h (0 Bft)
04.08.2014 21:12 21,1 C 18,9 C 71 % 1016,5 hPa 0,0 l/m 0 min 0 min 0,0 UV-I 0 W/m 0,0 km/h (0 Bft)
04.08.2014 21:14 21,0 C 18,9 C 70 % 1016,5 hPa 0,0 l/m 0 min 2 min 0,0 UV-I 0 W/m 0,0 km/h (0 Bft)
04.08.2014 21:16 21,0 C 18,3 C 73 % 1016,5 hPa 0,0 l/m 0 min 2 min 0,0 UV-I 0 W/m 0,0 km/h (0 Bft)
04.08.2014 21:18 20,9 C 17,8 C 74 % 1016,5 hPa 0,0 l/m 0 min 2 min 0,0 UV-I 0 W/m 0,0 km/h (0 Bft)
04.08.2014 21:20 20,8 C 17,2 C 74 % 1016,6 hPa 0,0 l/m 0 min 2 min 0,0 UV-I 0 W/m 0,0 km/h (0 Bft)
04.08.2014 21:22 20,7 C 17,2 C 76 % 1016,6 hPa 0,0 l/m 0 min 2 min 0,0 UV-I 0 W/m 0,0 km/h (0 Bft)
04.08.2014 21:24 20,7 C 17,2 C 75 % 1016,7 hPa 0,0 l/m 0 min 2 min 0,0 UV-I 0 W/m 0,0 km/h (0 Bft)
04.08.2014 21:26 20,6 C 17,2 C 75 % 1016,7 hPa 0,0 l/m 0 min 0 min 0,0 UV-I 0 W/m 0,0 km/h (0 Bft)
04.08.2014 21:28 20,6 C 17,2 C 76 % 1016,7 hPa 0,0 l/m 0 min 0 min 0,0 UV-I 0 W/m 0,0 km/h (0 Bft)
04.08.2014 21:30 20,5 C 17,2 C 76 % 1016,7 hPa 0,0 l/m 0 min 0 min 0,0 UV-I 0 W/m 0,0 km/h (0 Bft)
04.08.2014 21:32 20,5 C 17,2 C 77 % 1016,8 hPa 0,0 l/m 0 min 0 min 0,0 UV-I 0 W/m 0,0 km/h (0 Bft)
04.08.2014 21:34 20,4 C 17,2 C 78 % 1016,8 hPa 0,0 l/m 0 min 2 min 0,0 UV-I 0 W/m 0,0 km/h (0 Bft)
04.08.2014 21:36 20,4 C 17,2 C 79 % 1016,9 hPa 0,0 l/m 0 min 2 min 0,0 UV-I 0 W/m 0,0 km/h (0 Bft)
04.08.2014 21:38 20,3 C 17,2 C 79 % 1016,8 hPa 0,0 l/m 0 min 2 min 0,0 UV-I 0 W/m 0,0 km/h (0 Bft)
04.08.2014 21:40 20,3 C 17,2 C 81 % 1016,9 hPa 0,0 l/m 0 min 2 min 0,0 UV-I 0 W/m 0,0 km/h (0 Bft)
04.08.2014 21:42 20,3 C 16,7 C 82 % 1016,9 hPa 0,0 l/m 0 min 2 min 0,0 UV-I 0 W/m 0,0 km/h (0 Bft)
04.08.2014 21:44 20,2 C 16,7 C 83 % 1016,9 hPa 0,0 l/m 0 min 2 min 0,0 UV-I 0 W/m 0,0 km/h (0 Bft)
04.08.2014 21:46 20,1 C 16,7 C 83 % 1016,9 hPa 0,0 l/m 0 min 2 min 0,0 UV-I 0 W/m 0,0 km/h (0 Bft)
04.08.2014 21:48 19,9 C 16,7 C 84 % 1017,0 hPa 0,0 l/m 0 min 2 min 0,0 UV-I 0 W/m 0,0 km/h (0 Bft)
04.08.2014 21:50 19,8 C 16,7 C 85 % 1016,9 hPa 0,0 l/m 0 min 2 min 0,0 UV-I 0 W/m 0,0 km/h (0 Bft)
04.08.2014 21:52 19,7 C 16,7 C 84 % 1016,9 hPa 0,2 l/m 0 min 2 min 0,0 UV-I 0 W/m 0,0 km/h (0 Bft)
04.08.2014 21:54 19,7 C 16,7 C 84 % 1016,9 hPa 0,0 l/m 0 min 2 min 0,0 UV-I 0 W/m 0,0 km/h (0 Bft)
04.08.2014 21:56 19,6 C 16,7 C 85 % 1016,9 hPa 0,0 l/m 0 min 2 min 0,0 UV-I 0 W/m 0,0 km/h (0 Bft)
04.08.2014 21:58 19,6 C 16,7 C 84 % 1016,9 hPa 0,0 l/m 0 min 2 min 0,0 UV-I 0 W/m 0,0 km/h (0 Bft)
04.08.2014 22:00 19,6 C 16,7 C 84 % 1016,9 hPa 0,0 l/m 0 min 0 min 0,0 UV-I 0 W/m 0,0 km/h (0 Bft)
04.08.2014 22:02 19,6 C 16,7 C 86 % 1016,9 hPa 0,0 l/m 0 min 2 min 0,0 UV-I 0 W/m 0,0 km/h (0 Bft)
04.08.2014 22:04 19,6 C 16,7 C 86 % 1017,0 hPa 0,0 l/m 0 min 2 min 0,0 UV-I 0 W/m 0,0 km/h (0 Bft)
04.08.2014 22:06 19,6 C 16,7 C 87 % 1017,0 hPa 0,0 l/m 0 min 2 min 0,0 UV-I 0 W/m 0,0 km/h (0 Bft)
04.08.2014 22:08 19,5 C 16,7 C 87 % 1017,0 hPa 0,0 l/m 0 min 0 min 0,0 UV-I 0 W/m 0,0 km/h (0 Bft)
04.08.2014 22:10 19,4 C 16,7 C 87 % 1017,0 hPa 0,0 l/m 0 min 0 min 0,0 UV-I 0 W/m 0,0 km/h (0 Bft)
04.08.2014 22:12 19,3 C 16,7 C 87 % 1017,0 hPa 0,0 l/m 0 min 0 min 0,0 UV-I 0 W/m 0,0 km/h (0 Bft)
04.08.2014 22:14 19,2 C 16,7 C 87 % 1017,0 hPa 0,0 l/m 0 min 0 min 0,0 UV-I 0 W/m 0,0 km/h (0 Bft)
04.08.2014 22:16 19,2 C 16,7 C 87 % 1017,0 hPa 0,0 l/m 0 min 2 min 0,0 UV-I 0 W/m 0,0 km/h (0 Bft)
04.08.2014 22:18 19,1 C 16,7 C 87 % 1017,0 hPa 0,0 l/m 0 min 2 min 0,0 UV-I 0 W/m 0,0 km/h (0 Bft)
04.08.2014 22:20 19,1 C 16,1 C 86 % 1017,1 hPa 0,0 l/m 0 min 2 min 0,0 UV-I 0 W/m 0,0 km/h (0 Bft)
04.08.2014 22:22 19,1 C 16,1 C 86 % 1017,0 hPa 0,0 l/m 0 min 2 min 0,0 UV-I 0 W/m 0,0 km/h (0 Bft)
04.08.2014 22:24 19,0 C 16,1 C 86 % 1017,0 hPa 0,0 l/m 0 min 2 min 0,0 UV-I 0 W/m 0,0 km/h (0 Bft)
04.08.2014 22:26 19,0 C 16,1 C 86 % 1017,0 hPa 0,0 l/m 0 min 2 min 0,0 UV-I 0 W/m 0,0 km/h (0 Bft)
04.08.2014 22:28 18,9 C 16,1 C 86 % 1017,0 hPa 0,0 l/m 0 min 2 min 0,0 UV-I 0 W/m 0,0 km/h (0 Bft)
04.08.2014 22:30 18,9 C 16,1 C 86 % 1017,0 hPa 0,0 l/m 0 min 2 min 0,0 UV-I 0 W/m 0,0 km/h (0 Bft)
04.08.2014 22:32 18,9 C 16,1 C 87 % 1017,0 hPa 0,0 l/m 0 min 2 min 0,0 UV-I 0 W/m 0,0 km/h (0 Bft)
04.08.2014 22:34 18,9 C 16,1 C 88 % 1017,0 hPa 0,0 l/m 0 min 2 min 0,0 UV-I 0 W/m 0,0 km/h (0 Bft)
04.08.2014 22:36 18,9 C 16,1 C 88 % 1017,1 hPa 0,0 l/m 0 min 2 min 0,0 UV-I 0 W/m 0,0 km/h (0 Bft)
04.08.2014 22:38 18,9 C 16,1 C 89 % 1017,1 hPa 0,0 l/m 0 min 2 min 0,0 UV-I 0 W/m 0,0 km/h (0 Bft)
04.08.2014 22:40 18,9 C 16,1 C 89 % 1017,1 hPa 0,0 l/m 0 min 2 min 0,0 UV-I 0 W/m 0,0 km/h (0 Bft)
04.08.2014 22:42 18,8 C 16,7 C 89 % 1017,1 hPa 0,0 l/m 0 min 2 min 0,0 UV-I 0 W/m 0,0 km/h (0 Bft)
04.08.2014 22:44 18,8 C 16,1 C 90 % 1017,1 hPa 0,0 l/m 0 min 2 min 0,0 UV-I 0 W/m 0,0 km/h (0 Bft)
04.08.2014 22:46 18,7 C 16,1 C 90 % 1017,1 hPa 0,0 l/m 0 min 2 min 0,0 UV-I 0 W/m 0,0 km/h (0 Bft)
04.08.2014 22:48 18,7 C 16,1 C 90 % 1017,2 hPa 0,0 l/m 0 min 2 min 0,0 UV-I 0 W/m 0,0 km/h (0 Bft)
04.08.2014 22:50 18,6 C 16,1 C 90 % 1017,1 hPa 0,0 l/m 0 min 2 min 0,0 UV-I 0 W/m 0,0 km/h (0 Bft)
04.08.2014 22:52 18,5 C 16,1 C 90 % 1017,2 hPa 0,0 l/m 0 min 2 min 0,0 UV-I 0 W/m 0,0 km/h (0 Bft)
04.08.2014 22:54 18,5 C 16,1 C 91 % 1017,1 hPa 0,0 l/m 0 min 2 min 0,0 UV-I 0 W/m 0,0 km/h (0 Bft)
04.08.2014 22:56 18,4 C 16,1 C 91 % 1017,2 hPa 0,0 l/m 0 min 2 min 0,0 UV-I 0 W/m 0,0 km/h (0 Bft)
04.08.2014 22:58 18,4 C 16,1 C 91 % 1017,2 hPa 0,0 l/m 0 min 2 min 0,0 UV-I 0 W/m 0,0 km/h (0 Bft)
04.08.2014 23:00 18,4 C 16,1 C 91 % 1017,2 hPa 0,0 l/m 0 min 2 min 0,0 UV-I 0 W/m 0,0 km/h (0 Bft)
04.08.2014 23:02 18,3 C 16,1 C 91 % 1017,3 hPa 0,0 l/m 0 min 2 min 0,0 UV-I 0 W/m 0,0 km/h (0 Bft)
04.08.2014 23:04 18,3 C 16,1 C 91 % 1017,3 hPa 0,0 l/m 0 min 0 min 0,0 UV-I 0 W/m 0,0 km/h (0 Bft)
04.08.2014 23:06 18,2 C 16,1 C 91 % 1017,3 hPa 0,0 l/m 0 min 0 min 0,0 UV-I 0 W/m 0,0 km/h (0 Bft)
04.08.2014 23:08 18,1 C 16,1 C 91 % 1017,3 hPa 0,0 l/m 0 min 2 min 0,0 UV-I 0 W/m 0,0 km/h (0 Bft)
04.08.2014 23:10 18,1 C 16,1 C 91 % 1017,3 hPa 0,0 l/m 0 min 0 min 0,0 UV-I 0 W/m 0,0 km/h (0 Bft)
04.08.2014 23:12 18,1 C 16,1 C 91 % 1017,2 hPa 0,0 l/m 0 min 0 min 0,0 UV-I 0 W/m 0,0 km/h (0 Bft)
04.08.2014 23:14 18,1 C 16,1 C 91 % 1017,3 hPa 0,0 l/m 0 min 0 min 0,0 UV-I 0 W/m 0,0 km/h (0 Bft)
04.08.2014 23:16 18,1 C 16,1 C 91 % 1017,2 hPa 0,0 l/m 0 min 0 min 0,0 UV-I 0 W/m 0,0 km/h (0 Bft)
04.08.2014 23:18 18,2 C 16,1 C 91 % 1017,2 hPa 0,0 l/m 0 min 0 min 0,0 UV-I 0 W/m 0,0 km/h (0 Bft)
04.08.2014 23:20 18,2 C 16,1 C 91 % 1017,2 hPa 0,0 l/m 0 min 0 min 0,0 UV-I 0 W/m 0,0 km/h (0 Bft)
04.08.2014 23:22 18,2 C 16,1 C 91 % 1017,3 hPa 0,0 l/m 0 min 0 min 0,0 UV-I 0 W/m 0,0 km/h (0 Bft)
04.08.2014 23:24 18,2 C 16,1 C 91 % 1017,2 hPa 0,0 l/m 0 min 0 min 0,0 UV-I 0 W/m 10,7 km/h (2 Bft)
04.08.2014 23:26 18,2 C 16,1 C 91 % 1017,2 hPa 0,0 l/m 0 min 0 min 0,0 UV-I 0 W/m 3,5 km/h (1 Bft)
04.08.2014 23:28 18,2 C 16,1 C 91 % 1017,3 hPa 0,0 l/m 0 min 0 min 0,0 UV-I 0 W/m 0,0 km/h (0 Bft)
04.08.2014 23:30 18,2 C 16,1 C 92 % 1017,3 hPa 0,0 l/m 0 min 0 min 0,0 UV-I 0 W/m 3,5 km/h (1 Bft)
04.08.2014 23:32 18,2 C 16,1 C 92 % 1017,3 hPa 0,0 l/m 0 min 0 min 0,0 UV-I 0 W/m 0,0 km/h (0 Bft)
04.08.2014 23:34 18,2 C 16,1 C 92 % 1017,2 hPa 0,0 l/m 0 min 0 min 0,0 UV-I 0 W/m 0,0 km/h (0 Bft)
04.08.2014 23:36 18,2 C 16,1 C 92 % 1017,3 hPa 0,0 l/m 0 min 0 min 0,0 UV-I 0 W/m 0,0 km/h (0 Bft)
04.08.2014 23:38 18,2 C 16,1 C 92 % 1017,3 hPa 0,0 l/m 0 min 0 min 0,0 UV-I 0 W/m 3,5 km/h (1 Bft)
04.08.2014 23:40 18,2 C 16,1 C 92 % 1017,3 hPa 0,0 l/m 0 min 0 min 0,0 UV-I 0 W/m 0,0 km/h (0 Bft)
04.08.2014 23:42 18,2 C 16,1 C 92 % 1017,3 hPa 0,0 l/m 0 min 0 min 0,0 UV-I 0 W/m 0,0 km/h (0 Bft)
04.08.2014 23:44 18,2 C 16,1 C 93 % 1017,3 hPa 0,0 l/m 0 min 0 min 0,0 UV-I 0 W/m 0,0 km/h (0 Bft)
04.08.2014 23:46 18,2 C 16,1 C 93 % 1017,3 hPa 0,0 l/m 0 min 0 min 0,0 UV-I 0 W/m 0,0 km/h (0 Bft)
04.08.2014 23:48 18,2 C 16,1 C 93 % 1017,3 hPa 0,0 l/m 0 min 0 min 0,0 UV-I 0 W/m 0,0 km/h (0 Bft)
04.08.2014 23:50 18,2 C 16,1 C 93 % 1017,4 hPa 0,0 l/m 0 min 0 min 0,0 UV-I 0 W/m 0,0 km/h (0 Bft)
04.08.2014 23:52 18,2 C 16,1 C 93 % 1017,4 hPa 0,0 l/m 0 min 0 min 0,0 UV-I 0 W/m 0,0 km/h (0 Bft)
04.08.2014 23:54 18,2 C 16,1 C 93 % 1017,4 hPa 0,0 l/m 0 min 0 min 0,0 UV-I 0 W/m 0,0 km/h (0 Bft)
04.08.2014 23:56 18,2 C 16,1 C 93 % 1017,4 hPa 0,0 l/m 0 min 0 min 0,0 UV-I 0 W/m 0,0 km/h (0 Bft)
04.08.2014 23:58 18,2 C 16,1 C 93 % 1017,4 hPa 0,0 l/m 0 min 0 min 0,0 UV-I 0 W/m 0,0 km/h (0 Bft)
_ Min-Zeit 00:00 00:00 14:28 00:36 - - - - - 00:26
Minimum _ 16,1 C 15,0 C 55 % 1012,6 hPa - - - - - 0,0 km/h (0 Bft)
_ Max-Zeit 15:00 12:40 07:44 23:50 00:05 07:50 00:00 13:10 12:40 13:38
Maximum _ 24,4 C 25,6 C 100 % 1017,4 hPa 0,2 l/m 2 min 2 min 5,0 UV-I 887 W/m 35,4 km/h
N-NO (5 Bft)
Durchschnitt _ 19,8 C 18,8 C 82 % 1014,9 hPa #0,8 l/m #9:42 h #3:39 h 2,7 UV-I 367 W/m 9,6 km/h (2 Bft)
© 2014 W. Hausmann